Time,TemperatureF,DewpointF,PressureIn,WindDirection,WindDirectionDegrees,WindSpeedMPH,WindSpeedGustMPH,Humidity,HourlyPrecipIn,Conditions,Clouds,dailyrainin,SolarRadiationWatts/m^2,SoftwareType,DateUTC
2013-07-04 00:00:00,66.8,57.5,30.04,North,360,0.0,5.0,72,0.00,,,0.00,0,Wunderground v.1.15,2013-07-04 04:00:00,
2013-07-04 00:01:00,66.8,57.5,30.04,North,360,0.0,5.0,72,0.00,,,0.00,0,Wunderground v.1.15,2013-07-04 04:01:00,
2013-07-04 00:02:00,66.7,57.4,30.04,North,360,0.0,5.0,72,0.00,,,0.00,0,Wunderground v.1.15,2013-07-04 04:02:00,
2013-07-04 00:04:00,66.7,57.4,30.04,North,360,0.0,5.0,72,0.00,,,0.00,0,Wunderground v.1.15,2013-07-04 04:04:00,
2013-07-04 00:06:00,66.8,57.5,30.05,North,360,0.0,5.0,72,0.00,,,0.00,0,Wunderground v.1.15,2013-07-04 04:06:00,
2013-07-04 00:07:00,66.8,57.5,30.05,North,360,0.0,5.0,72,0.00,,,0.00,0,Wunderground v.1.15,2013-07-04 04:07:00,
2013-07-04 00:09:00,66.9,57.6,30.04,North,360,0.0,5.0,72,0.00,,,0.00,0,Wunderground v.1.15,2013-07-04 04:09:00,
2013-07-04 00:10:00,66.9,57.6,30.04,North,360,0.0,5.0,72,0.00,,,0.00,0,Wunderground v.1.15,2013-07-04 04:10:00,
2013-07-04 00:15:00,67.0,57.7,30.04,North,360,0.0,5.0,72,0.00,,,0.00,0,Wunderground v.1.15,2013-07-04 04:15:00,
2013-07-04 00:16:00,67.1,57.8,30.04,North,360,0.0,5.0,72,0.00,,,0.00,0,Wunderground v.1.15,2013-07-04 04:16:00,
2013-07-04 00:17:00,67.1,57.8,30.04,North,360,0.0,5.0,72,0.00,,,0.00,0,Wunderground v.1.15,2013-07-04 04:17:00,
2013-07-04 00:18:00,67.2,57.9,30.04,North,360,0.0,5.0,72,0.00,,,0.00,0,Wunderground v.1.15,2013-07-04 04:18:00,
2013-07-04 00:21:00,67.3,57.6,30.04,North,360,0.0,5.0,71,0.00,,,0.00,0,Wunderground v.1.15,2013-07-04 04:21:00,
2013-07-04 00:22:00,67.4,57.7,30.04,North,360,0.0,5.0,71,0.00,,,0.00,0,Wunderground v.1.15,2013-07-04 04:22:00,
2013-07-04 00:24:00,67.5,57.8,30.04,North,360,0.0,5.0,71,0.00,,,0.00,0,Wunderground v.1.15,2013-07-04 04:24:00,
2013-07-04 00:26:00,67.7,58.0,30.04,North,360,0.0,5.0,71,0.00,,,0.00,0,Wunderground v.1.15,2013-07-04 04:26:00,
2013-07-04 00:28:00,67.8,58.1,30.04,North,360,0.0,5.0,71,0.00,,,0.00,0,Wunderground v.1.15,2013-07-04 04:28:00,
2013-07-04 00:29:00,67.8,58.1,30.04,North,360,0.0,5.0,71,0.00,,,0.00,0,Wunderground v.1.15,2013-07-04 04:29:00,
2013-07-04 00:32:00,67.9,58.1,30.04,North,360,0.0,5.0,71,0.00,,,0.00,0,Wunderground v.1.15,2013-07-04 04:32:00,
2013-07-04 00:33:00,67.9,58.1,30.04,North,360,0.0,5.0,71,0.00,,,0.00,0,Wunderground v.1.15,2013-07-04 04:33:00,
2013-07-04 00:34:00,68.0,58.2,30.04,North,360,0.0,5.0,71,0.00,,,0.00,0,Wunderground v.1.15,2013-07-04 04:34:00,
2013-07-04 00:38:00,68.1,57.9,30.04,North,360,0.0,5.0,70,0.00,,,0.00,0,Wunderground v.1.15,2013-07-04 04:38:00,
2013-07-04 00:39:00,68.1,57.9,30.04,North,360,0.0,5.0,70,0.00,,,0.00,0,Wunderground v.1.15,2013-07-04 04:39:00,
2013-07-04 00:40:00,68.0,57.8,30.04,North,360,0.0,5.0,70,0.00,,,0.00,0,Wunderground v.1.15,2013-07-04 04:40:00,
2013-07-04 00:41:00,68.0,58.2,30.04,North,360,0.0,5.0,71,0.00,,,0.00,0,Wunderground v.1.15,2013-07-04 04:41:00,
2013-07-04 00:44:00,68.0,58.2,30.04,North,360,0.0,5.0,71,0.00,,,0.00,0,Wunderground v.1.15,2013-07-04 04:44:00,
2013-07-04 00:49:00,68.0,58.2,30.04,North,360,0.0,5.0,71,0.00,,,0.00,0,Wunderground v.1.15,2013-07-04 04:49:00,
2013-07-04 00:51:00,68.0,58.2,30.04,North,360,0.0,5.0,71,0.00,,,0.00,0,Wunderground v.1.15,2013-07-04 04:51:00,
2013-07-04 00:52:00,68.0,58.2,30.03,North,360,0.0,5.0,71,0.00,,,0.00,0,Wunderground v.1.15,2013-07-04 04:52:00,
2013-07-04 00:53:00,68.1,58.3,30.03,North,360,0.0,5.0,71,0.00,,,0.00,0,Wunderground v.1.15,2013-07-04 04:53:00,
2013-07-04 00:55:00,68.0,57.8,30.03,North,360,0.0,5.0,70,0.00,,,0.00,0,Wunderground v.1.15,2013-07-04 04:55:00,
2013-07-04 00:59:00,67.9,58.1,30.03,North,360,0.0,5.0,71,0.00,,,0.00,0,Wunderground v.1.15,2013-07-04 04:59:00,
2013-07-04 01:02:00,67.7,58.0,30.03,North,360,0.0,5.0,71,0.00,,,0.00,0,Wunderground v.1.15,2013-07-04 05:02:00,
2013-07-04 01:05:00,67.6,57.9,30.03,North,360,0.0,5.0,71,0.00,,,0.00,0,Wunderground v.1.15,2013-07-04 05:05:00,
2013-07-04 01:06:00,67.6,57.9,30.02,North,360,0.0,5.0,71,0.00,,,0.00,0,Wunderground v.1.15,2013-07-04 05:06:00,
2013-07-04 01:07:00,67.5,57.8,30.03,North,360,0.0,5.0,71,0.00,,,0.00,0,Wunderground v.1.15,2013-07-04 05:07:00,
2013-07-04 01:10:00,67.4,57.7,30.03,North,360,0.0,5.0,71,0.00,,,0.00,0,Wunderground v.1.15,2013-07-04 05:10:00,
2013-07-04 01:13:00,67.3,58.0,30.03,North,360,0.0,5.0,72,0.00,,,0.00,0,Wunderground v.1.15,2013-07-04 05:13:00,
2013-07-04 01:14:00,67.3,58.0,30.03,North,360,0.0,5.0,72,0.00,,,0.00,0,Wunderground v.1.15,2013-07-04 05:14:00,
2013-07-04 01:15:00,67.2,57.9,30.03,North,360,0.0,5.0,72,0.00,,,0.00,0,Wunderground v.1.15,2013-07-04 05:15:00,
2013-07-04 01:16:00,67.2,57.9,30.03,North,360,0.0,5.0,72,0.00,,,0.00,0,Wunderground v.1.15,2013-07-04 05:16:00,
2013-07-04 01:18:00,67.2,57.9,30.03,North,360,0.0,5.0,72,0.00,,,0.00,0,Wunderground v.1.15,2013-07-04 05:18:00,
2013-07-04 01:19:00,67.1,57.8,30.03,North,360,0.0,5.0,72,0.00,,,0.00,0,Wunderground v.1.15,2013-07-04 05:19:00,
2013-07-04 01:20:00,67.1,57.8,30.03,North,360,0.0,5.0,72,0.00,,,0.00,0,Wunderground v.1.15,2013-07-04 05:20:00,
2013-07-04 01:22:00,67.1,58.2,30.03,North,360,0.0,5.0,73,0.00,,,0.00,0,Wunderground v.1.15,2013-07-04 05:22:00,
2013-07-04 01:25:00,67.0,58.1,30.03,North,360,0.0,5.0,73,0.00,,,0.00,0,Wunderground v.1.15,2013-07-04 05:25:00,
2013-07-04 01:26:00,66.9,58.0,30.03,North,360,0.0,5.0,73,0.00,,,0.00,0,Wunderground v.1.15,2013-07-04 05:26:00,
2013-07-04 01:28:00,66.9,58.0,30.03,North,360,0.0,5.0,73,0.00,,,0.00,0,Wunderground v.1.15,2013-07-04 05:28:00,
2013-07-04 01:30:00,66.9,58.0,30.03,North,360,0.0,5.0,73,0.00,,,0.00,0,Wunderground v.1.15,2013-07-04 05:30:00,
2013-07-04 01:32:00,66.9,58.3,30.03,North,360,0.0,5.0,74,0.00,,,0.00,0,Wunderground v.1.15,2013-07-04 05:32:00,
2013-07-04 01:35:00,67.0,58.1,30.03,North,360,0.0,5.0,73,0.00,,,0.00,0,Wunderground v.1.15,2013-07-04 05:35:00,
2013-07-04 01:36:00,67.0,58.1,30.03,North,360,0.0,5.0,73,0.00,,,0.00,0,Wunderground v.1.15,2013-07-04 05:36:00,
2013-07-04 01:37:00,67.0,58.1,30.03,North,360,0.0,5.0,73,0.00,,,0.00,0,Wunderground v.1.15,2013-07-04 05:37:00,
2013-07-04 01:40:00,67.0,58.1,30.03,North,360,0.0,5.0,73,0.00,,,0.00,0,Wunderground v.1.15,2013-07-04 05:40:00,
2013-07-04 01:43:00,67.0,58.4,30.03,North,360,0.0,5.0,74,0.00,,,0.00,0,Wunderground v.1.15,2013-07-04 05:43:00,
2013-07-04 01:44:00,67.0,58.1,30.03,North,360,0.0,5.0,73,0.00,,,0.00,0,Wunderground v.1.15,2013-07-04 05:44:00,
2013-07-04 01:45:00,67.0,58.1,30.03,North,360,0.0,5.0,73,0.00,,,0.00,0,Wunderground v.1.15,2013-07-04 05:45:00,
2013-07-04 01:48:00,67.0,58.4,30.02,North,360,0.0,5.0,74,0.00,,,0.00,0,Wunderground v.1.15,2013-07-04 05:48:00,
2013-07-04 01:49:00,66.9,58.3,30.02,North,360,0.0,5.0,74,0.00,,,0.00,0,Wunderground v.1.15,2013-07-04 05:49:00,
2013-07-04 01:50:00,66.9,58.3,30.02,North,360,0.0,5.0,74,0.00,,,0.00,0,Wunderground v.1.15,2013-07-04 05:50:00,
2013-07-04 01:51:00,66.9,58.3,30.02,North,360,0.0,5.0,74,0.00,,,0.00,0,Wunderground v.1.15,2013-07-04 05:51:00,
2013-07-04 01:56:00,66.7,58.1,30.02,North,360,0.0,5.0,74,0.00,,,0.00,0,Wunderground v.1.15,2013-07-04 05:56:00,
2013-07-04 01:57:00,66.7,58.1,30.02,North,360,0.0,5.0,74,0.00,,,0.00,0,Wunderground v.1.15,2013-07-04 05:57:00,
2013-07-04 01:58:00,66.7,58.1,30.02,North,360,0.0,5.0,74,0.00,,,0.00,0,Wunderground v.1.15,2013-07-04 05:58:00,
2013-07-04 01:59:00,66.7,58.1,30.02,North,360,0.0,5.0,74,0.00,,,0.00,0,Wunderground v.1.15,2013-07-04 05:59:00,
2013-07-04 02:00:00,66.6,58.4,30.02,North,360,0.0,5.0,75,0.00,,,0.00,0,Wunderground v.1.15,2013-07-04 06:00:00,
2013-07-04 02:03:00,66.5,58.3,30.02,North,360,0.0,5.0,75,0.00,,,0.00,0,Wunderground v.1.15,2013-07-04 06:03:00,
2013-07-04 02:04:00,66.5,58.3,30.02,North,360,0.0,5.0,75,0.00,,,0.00,0,Wunderground v.1.15,2013-07-04 06:04:00,
2013-07-04 02:05:00,66.4,58.6,30.02,North,360,0.0,5.0,76,0.00,,,0.00,0,Wunderground v.1.15,2013-07-04 06:05:00,
2013-07-04 02:07:00,66.4,58.6,30.01,North,360,0.0,5.0,76,0.00,,,0.00,0,Wunderground v.1.15,2013-07-04 06:07:00,
2013-07-04 02:08:00,66.3,58.5,30.01,North,360,0.0,5.0,76,0.00,,,0.00,0,Wunderground v.1.15,2013-07-04 06:08:00,
2013-07-04 02:09:00,66.3,58.5,30.01,North,360,0.0,5.0,76,0.00,,,0.00,0,Wunderground v.1.15,2013-07-04 06:09:00,
2013-07-04 02:13:00,66.3,58.5,30.01,North,360,0.0,5.0,76,0.00,,,0.00,0,Wunderground v.1.15,2013-07-04 06:13:00,
2013-07-04 02:15:00,66.3,58.5,30.01,North,360,0.0,5.0,76,0.00,,,0.00,0,Wunderground v.1.15,2013-07-04 06:15:00,
2013-07-04 02:16:00,66.3,58.5,30.01,North,360,0.0,5.0,76,0.00,,,0.00,0,Wunderground v.1.15,2013-07-04 06:16:00,
2013-07-04 02:18:00,66.3,58.5,30.01,North,360,0.0,5.0,76,0.00,,,0.00,0,Wunderground v.1.15,2013-07-04 06:18:00,
2013-07-04 02:19:00,66.2,58.4,30.01,North,360,0.0,5.0,76,0.00,,,0.00,0,Wunderground v.1.15,2013-07-04 06:19:00,
2013-07-04 02:21:00,66.2,58.4,30.01,North,360,0.0,5.0,76,0.00,,,0.00,0,Wunderground v.1.15,2013-07-04 06:21:00,
2013-07-04 02:23:00,66.1,58.3,30.01,North,360,0.0,5.0,76,0.00,,,0.00,0,Wunderground v.1.15,2013-07-04 06:23:00,
2013-07-04 02:25:00,66.0,58.6,30.01,North,360,0.0,5.0,77,0.00,,,0.00,0,Wunderground v.1.15,2013-07-04 06:25:00,
2013-07-04 02:27:00,66.0,58.6,30.00,North,360,0.0,5.0,77,0.00,,,0.00,0,Wunderground v.1.15,2013-07-04 06:27:00,
2013-07-04 02:28:00,65.9,58.5,30.01,North,360,0.0,5.0,77,0.00,,,0.00,0,Wunderground v.1.15,2013-07-04 06:28:00,
2013-07-04 02:29:00,65.9,58.5,30.01,North,360,0.0,5.0,77,0.00,,,0.00,0,Wunderground v.1.15,2013-07-04 06:29:00,
2013-07-04 02:34:00,65.8,58.4,30.01,North,360,0.0,5.0,77,0.00,,,0.00,0,Wunderground v.1.15,2013-07-04 06:34:00,
2013-07-04 02:35:00,65.7,58.3,30.01,North,360,0.0,5.0,77,0.00,,,0.00,0,Wunderground v.1.15,2013-07-04 06:35:00,
2013-07-04 02:39:00,65.6,58.2,30.01,North,360,0.0,5.0,77,0.00,,,0.00,0,Wunderground v.1.15,2013-07-04 06:39:00,
2013-07-04 02:40:00,65.6,58.2,30.01,North,360,0.0,5.0,77,0.00,,,0.00,0,Wunderground v.1.15,2013-07-04 06:40:00,
2013-07-04 02:41:00,65.5,58.1,30.01,North,360,0.0,5.0,77,0.00,,,0.00,0,Wunderground v.1.15,2013-07-04 06:41:00,
2013-07-04 02:43:00,65.5,58.5,30.01,North,360,0.0,5.0,78,0.00,,,0.00,0,Wunderground v.1.15,2013-07-04 06:43:00,
2013-07-04 02:45:00,65.4,58.4,30.01,North,360,0.0,5.0,78,0.00,,,0.00,0,Wunderground v.1.15,2013-07-04 06:45:00,
2013-07-04 02:46:00,65.3,58.3,30.01,North,360,0.0,5.0,78,0.00,,,0.00,0,Wunderground v.1.15,2013-07-04 06:46:00,
2013-07-04 02:48:00,65.3,58.3,30.01,North,360,0.0,5.0,78,0.00,,,0.00,0,Wunderground v.1.15,2013-07-04 06:48:00,
2013-07-04 02:51:00,65.2,58.2,30.01,North,360,0.0,5.0,78,0.00,,,0.00,0,Wunderground v.1.15,2013-07-04 06:51:00,
2013-07-04 02:52:00,65.2,58.2,30.01,North,360,0.0,5.0,78,0.00,,,0.00,0,Wunderground v.1.15,2013-07-04 06:52:00,
2013-07-04 02:53:00,65.1,58.1,30.01,North,360,0.0,5.0,78,0.00,,,0.00,0,Wunderground v.1.15,2013-07-04 06:53:00,
2013-07-04 02:54:00,65.1,58.1,30.01,North,360,0.0,5.0,78,0.00,,,0.00,0,Wunderground v.1.15,2013-07-04 06:54:00,
2013-07-04 02:56:00,65.1,58.1,30.01,North,360,0.0,5.0,78,0.00,,,0.00,0,Wunderground v.1.15,2013-07-04 06:56:00,
2013-07-04 02:59:00,65.0,58.0,30.01,North,360,0.0,5.0,78,0.00,,,0.00,0,Wunderground v.1.15,2013-07-04 06:59:00,
2013-07-04 03:00:00,64.9,57.9,30.01,North,360,0.0,5.0,78,0.00,,,0.00,0,Wunderground v.1.15,2013-07-04 07:00:00,
2013-07-04 03:03:00,64.9,57.9,30.01,North,360,0.0,5.0,78,0.00,,,0.00,0,Wunderground v.1.15,2013-07-04 07:03:00,
2013-07-04 03:04:00,64.9,57.9,30.01,North,360,0.0,5.0,78,0.00,,,0.00,0,Wunderground v.1.15,2013-07-04 07:04:00,
2013-07-04 03:05:00,64.9,57.9,30.01,North,360,0.0,5.0,78,0.00,,,0.00,0,Wunderground v.1.15,2013-07-04 07:05:00,
2013-07-04 03:06:00,64.9,57.9,30.01,North,360,0.0,5.0,78,0.00,,,0.00,0,Wunderground v.1.15,2013-07-04 07:06:00,
2013-07-04 03:08:00,64.8,57.8,30.01,North,360,0.0,5.0,78,0.00,,,0.00,0,Wunderground v.1.15,2013-07-04 07:08:00,
2013-07-04 03:11:00,64.7,58.0,30.01,North,360,0.0,5.0,79,0.00,,,0.00,0,Wunderground v.1.15,2013-07-04 07:11:00,
2013-07-04 03:12:00,64.7,58.0,30.01,North,360,0.0,5.0,79,0.00,,,0.00,0,Wunderground v.1.15,2013-07-04 07:12:00,
2013-07-04 03:17:00,64.6,58.3,30.00,North,360,0.0,5.0,80,0.00,,,0.00,0,Wunderground v.1.15,2013-07-04 07:17:00,
2013-07-04 03:18:00,64.6,58.3,30.01,North,360,0.0,5.0,80,0.00,,,0.00,0,Wunderground v.1.15,2013-07-04 07:18:00,
2013-07-04 03:21:00,64.6,58.3,30.00,North,360,0.0,5.0,80,0.00,,,0.00,0,Wunderground v.1.15,2013-07-04 07:21:00,
2013-07-04 03:23:00,64.6,58.6,30.00,North,360,0.0,5.0,81,0.00,,,0.00,0,Wunderground v.1.15,2013-07-04 07:23:00,
2013-07-04 03:24:00,64.5,58.5,30.00,North,360,0.0,5.0,81,0.00,,,0.00,0,Wunderground v.1.15,2013-07-04 07:24:00,
2013-07-04 03:26:00,64.5,58.2,30.00,North,360,0.0,5.0,80,0.00,,,0.00,0,Wunderground v.1.15,2013-07-04 07:26:00,
2013-07-04 03:28:00,64.5,58.5,30.00,North,360,0.0,5.0,81,0.00,,,0.00,0,Wunderground v.1.15,2013-07-04 07:28:00,
2013-07-04 03:30:00,64.5,58.5,30.00,North,360,0.0,5.0,81,0.00,,,0.00,0,Wunderground v.1.15,2013-07-04 07:30:00,
2013-07-04 03:33:00,64.4,58.4,30.00,North,360,0.0,5.0,81,0.00,,,0.00,0,Wunderground v.1.15,2013-07-04 07:33:00,
2013-07-04 03:35:00,64.4,58.4,30.00,North,360,0.0,5.0,81,0.00,,,0.00,0,Wunderground v.1.15,2013-07-04 07:35:00,
2013-07-04 03:36:00,64.4,58.8,30.00,North,360,0.0,5.0,82,0.00,,,0.00,0,Wunderground v.1.15,2013-07-04 07:36:00,
2013-07-04 03:40:00,64.3,58.7,30.00,North,360,0.0,5.0,82,0.00,,,0.00,0,Wunderground v.1.15,2013-07-04 07:40:00,
2013-07-04 03:42:00,64.3,58.7,30.00,North,360,0.0,5.0,82,0.00,,,0.00,0,Wunderground v.1.15,2013-07-04 07:42:00,
2013-07-04 03:43:00,64.3,58.7,30.00,North,360,0.0,5.0,82,0.00,,,0.00,0,Wunderground v.1.15,2013-07-04 07:43:00,
2013-07-04 03:44:00,64.3,58.7,30.00,North,360,0.0,5.0,82,0.00,,,0.00,0,Wunderground v.1.15,2013-07-04 07:44:00,
2013-07-04 03:48:00,64.2,58.9,30.00,North,360,0.0,5.0,83,0.00,,,0.00,0,Wunderground v.1.15,2013-07-04 07:48:00,
2013-07-04 03:49:00,64.2,58.9,30.00,North,360,0.0,5.0,83,0.00,,,0.00,0,Wunderground v.1.15,2013-07-04 07:49:00,
2013-07-04 03:50:00,64.2,58.9,30.00,North,360,0.0,5.0,83,0.00,,,0.00,0,Wunderground v.1.15,2013-07-04 07:50:00,
2013-07-04 03:51:00,64.2,58.9,30.00,North,360,0.0,5.0,83,0.00,,,0.00,0,Wunderground v.1.15,2013-07-04 07:51:00,
2013-07-04 03:54:00,64.3,59.0,30.00,North,360,0.0,5.0,83,0.00,,,0.00,0,Wunderground v.1.15,2013-07-04 07:54:00,
2013-07-04 03:58:00,64.4,59.1,30.00,North,360,0.0,5.0,83,0.00,,,0.00,0,Wunderground v.1.15,2013-07-04 07:58:00,
2013-07-04 04:03:00,64.5,59.2,30.00,North,360,0.0,5.0,83,0.00,,,0.00,0,Wunderground v.1.15,2013-07-04 08:03:00,
2013-07-04 04:04:00,64.5,59.2,30.00,North,360,0.0,5.0,83,0.00,,,0.00,0,Wunderground v.1.15,2013-07-04 08:04:00,
2013-07-04 04:05:00,64.5,59.2,30.00,North,360,0.0,5.0,83,0.00,,,0.00,0,Wunderground v.1.15,2013-07-04 08:05:00,
2013-07-04 04:07:00,64.5,59.2,30.00,North,360,0.0,5.0,83,0.00,,,0.00,0,Wunderground v.1.15,2013-07-04 08:07:00,
2013-07-04 04:10:00,64.4,59.1,30.00,North,360,0.0,5.0,83,0.00,,,0.00,0,Wunderground v.1.15,2013-07-04 08:10:00,
2013-07-04 04:11:00,64.4,59.1,30.00,North,360,0.0,5.0,83,0.00,,,0.00,0,Wunderground v.1.15,2013-07-04 08:11:00,
2013-07-04 04:12:00,64.3,59.0,30.00,North,360,0.0,5.0,83,0.00,,,0.00,0,Wunderground v.1.15,2013-07-04 08:12:00,
2013-07-04 04:14:00,64.3,59.0,30.00,North,360,0.0,5.0,83,0.00,,,0.00,0,Wunderground v.1.15,2013-07-04 08:14:00,
2013-07-04 04:18:00,64.1,58.8,30.00,North,360,0.0,5.0,83,0.00,,,0.00,0,Wunderground v.1.15,2013-07-04 08:18:00,
2013-07-04 04:19:00,64.1,58.8,30.00,North,360,0.0,5.0,83,0.00,,,0.00,0,Wunderground v.1.15,2013-07-04 08:19:00,
2013-07-04 04:22:00,64.1,59.2,30.00,North,360,0.0,5.0,84,0.00,,,0.00,0,Wunderground v.1.15,2013-07-04 08:22:00,
2013-07-04 04:24:00,64.1,59.2,30.00,North,360,0.0,5.0,84,0.00,,,0.00,0,Wunderground v.1.15,2013-07-04 08:24:00,
2013-07-04 04:25:00,64.1,59.2,30.00,North,360,0.0,5.0,84,0.00,,,0.00,0,Wunderground v.1.15,2013-07-04 08:25:00,
2013-07-04 04:27:00,64.1,59.2,30.00,North,360,0.0,5.0,84,0.00,,,0.00,0,Wunderground v.1.15,2013-07-04 08:27:00,
2013-07-04 04:28:00,64.1,59.2,30.00,North,360,0.0,5.0,84,0.00,,,0.00,0,Wunderground v.1.15,2013-07-04 08:28:00,
2013-07-04 04:33:00,64.2,59.3,30.00,North,360,0.0,5.0,84,0.00,,,0.00,0,Wunderground v.1.15,2013-07-04 08:33:00,
2013-07-04 04:34:00,64.2,59.3,30.00,North,360,0.0,5.0,84,0.00,,,0.00,0,Wunderground v.1.15,2013-07-04 08:34:00,
2013-07-04 04:36:00,64.2,59.3,30.00,North,360,0.0,5.0,84,0.00,,,0.00,0,Wunderground v.1.15,2013-07-04 08:36:00,
2013-07-04 04:37:00,64.2,59.3,30.00,North,360,0.0,5.0,84,0.00,,,0.00,0,Wunderground v.1.15,2013-07-04 08:37:00,
2013-07-04 04:39:00,64.2,59.3,30.00,North,360,0.0,5.0,84,0.00,,,0.00,0,Wunderground v.1.15,2013-07-04 08:39:00,
2013-07-04 04:40:00,64.2,59.3,30.00,North,360,0.0,5.0,84,0.00,,,0.00,0,Wunderground v.1.15,2013-07-04 08:40:00,
2013-07-04 04:43:00,64.2,59.3,30.00,North,360,0.0,5.0,84,0.00,,,0.00,0,Wunderground v.1.15,2013-07-04 08:43:00,
2013-07-04 04:45:00,64.1,59.5,30.00,North,360,0.0,5.0,85,0.00,,,0.00,0,Wunderground v.1.15,2013-07-04 08:45:00,
2013-07-04 04:47:00,64.1,59.5,30.00,North,360,0.0,5.0,85,0.00,,,0.00,0,Wunderground v.1.15,2013-07-04 08:47:00,
2013-07-04 04:48:00,64.1,59.5,30.00,North,360,0.0,5.0,85,0.00,,,0.00,0,Wunderground v.1.15,2013-07-04 08:48:00,
2013-07-04 04:49:00,64.1,59.5,30.00,North,360,0.0,5.0,85,0.00,,,0.00,0,Wunderground v.1.15,2013-07-04 08:49:00,
2013-07-04 04:51:00,64.1,59.5,30.00,North,360,0.0,5.0,85,0.00,,,0.00,0,Wunderground v.1.15,2013-07-04 08:51:00,
2013-07-04 04:54:00,64.0,59.7,30.00,North,360,0.0,5.0,86,0.00,,,0.00,0,Wunderground v.1.15,2013-07-04 08:54:00,
2013-07-04 04:55:00,64.0,59.7,30.00,North,360,0.0,5.0,86,0.00,,,0.00,0,Wunderground v.1.15,2013-07-04 08:55:00,
2013-07-04 04:56:00,64.0,59.7,30.00,North,360,0.0,5.0,86,0.00,,,0.00,0,Wunderground v.1.15,2013-07-04 08:56:00,
2013-07-04 04:57:00,64.0,59.7,30.00,North,360,0.0,5.0,86,0.00,,,0.00,0,Wunderground v.1.15,2013-07-04 08:57:00,
2013-07-04 05:01:00,64.0,59.7,30.00,North,360,0.0,5.0,86,0.00,,,0.00,0,Wunderground v.1.15,2013-07-04 09:01:00,
2013-07-04 05:02:00,64.0,59.7,30.00,North,360,0.0,5.0,86,0.00,,,0.00,0,Wunderground v.1.15,2013-07-04 09:02:00,
2013-07-04 05:06:00,63.9,59.6,30.00,North,360,0.0,5.0,86,0.00,,,0.00,0,Wunderground v.1.15,2013-07-04 09:06:00,
2013-07-04 05:07:00,63.9,59.6,30.00,North,360,0.0,5.0,86,0.00,,,0.00,0,Wunderground v.1.15,2013-07-04 09:07:00,
2013-07-04 05:08:00,63.9,59.6,30.00,North,360,0.0,5.0,86,0.00,,,0.00,0,Wunderground v.1.15,2013-07-04 09:08:00,
2013-07-04 05:11:00,63.9,59.6,30.00,North,360,0.0,5.0,86,0.00,,,0.00,0,Wunderground v.1.15,2013-07-04 09:11:00,
2013-07-04 05:16:00,63.9,60.0,30.00,North,360,0.0,5.0,87,0.00,,,0.00,0,Wunderground v.1.15,2013-07-04 09:16:00,
2013-07-04 05:18:00,63.9,60.0,30.00,North,360,0.0,5.0,87,0.00,,,0.00,0,Wunderground v.1.15,2013-07-04 09:18:00,
2013-07-04 05:19:00,63.9,60.0,30.00,North,360,0.0,5.0,87,0.00,,,0.00,0,Wunderground v.1.15,2013-07-04 09:19:00,
2013-07-04 05:25:00,63.9,60.0,30.00,North,360,0.0,5.0,87,0.00,,,0.00,0,Wunderground v.1.15,2013-07-04 09:25:00,
2013-07-04 05:26:00,63.8,59.9,30.00,North,360,0.0,5.0,87,0.00,,,0.00,0,Wunderground v.1.15,2013-07-04 09:26:00,
2013-07-04 05:27:00,63.8,59.9,30.00,North,360,0.0,5.0,87,0.00,,,0.00,0,Wunderground v.1.15,2013-07-04 09:27:00,
2013-07-04 05:28:00,63.8,59.9,30.00,North,360,0.0,5.0,87,0.00,,,0.00,0,Wunderground v.1.15,2013-07-04 09:28:00,
2013-07-04 05:32:00,63.8,59.9,30.00,North,360,0.0,0.0,87,0.00,,,0.00,0,Wunderground v.1.15,2013-07-04 09:32:00,
2013-07-04 05:33:00,63.8,60.2,30.00,North,360,0.0,0.0,88,0.00,,,0.00,0,Wunderground v.1.15,2013-07-04 09:33:00,
2013-07-04 05:34:00,63.8,60.2,30.00,North,360,0.0,0.0,88,0.00,,,0.00,0,Wunderground v.1.15,2013-07-04 09:34:00,
2013-07-04 05:35:00,63.8,60.2,30.00,North,360,0.0,0.0,88,0.00,,,0.00,0,Wunderground v.1.15,2013-07-04 09:35:00,
2013-07-04 05:37:00,63.8,60.2,30.00,North,360,0.0,0.0,88,0.00,,,0.00,0,Wunderground v.1.15,2013-07-04 09:37:00,
2013-07-04 05:38:00,63.8,60.2,30.00,North,360,0.0,0.0,88,0.00,,,0.00,0,Wunderground v.1.15,2013-07-04 09:38:00,
2013-07-04 05:40:00,63.7,60.1,30.00,North,360,0.0,0.0,88,0.00,,,0.00,0,Wunderground v.1.15,2013-07-04 09:40:00,
2013-07-04 05:41:00,63.7,60.1,30.00,North,360,0.0,0.0,88,0.00,,,0.00,0,Wunderground v.1.15,2013-07-04 09:41:00,
2013-07-04 05:43:00,63.7,60.1,30.00,North,360,0.0,0.0,88,0.00,,,0.00,0,Wunderground v.1.15,2013-07-04 09:43:00,
2013-07-04 05:44:00,63.7,60.1,30.00,North,360,0.0,0.0,88,0.00,,,0.00,0,Wunderground v.1.15,2013-07-04 09:44:00,
2013-07-04 05:47:00,63.7,60.1,30.00,North,360,0.0,0.0,88,0.00,,,0.00,0,Wunderground v.1.15,2013-07-04 09:47:00,
2013-07-04 05:49:00,63.6,60.0,30.00,North,360,0.0,0.0,88,0.00,,,0.00,0,Wunderground v.1.15,2013-07-04 09:49:00,
2013-07-04 05:50:00,63.6,60.0,30.00,North,360,0.0,0.0,88,0.00,,,0.00,0,Wunderground v.1.15,2013-07-04 09:50:00,
2013-07-04 05:51:00,63.6,60.0,30.00,North,360,0.0,0.0,88,0.00,,,0.00,0,Wunderground v.1.15,2013-07-04 09:51:00,
2013-07-04 05:53:00,63.6,60.0,30.00,North,360,0.0,0.0,88,0.00,,,0.00,0,Wunderground v.1.15,2013-07-04 09:53:00,
2013-07-04 05:54:00,63.6,60.0,30.00,North,360,0.0,0.0,88,0.00,,,0.00,0,Wunderground v.1.15,2013-07-04 09:54:00,
2013-07-04 05:57:00,63.6,60.0,30.00,North,360,0.0,0.0,88,0.00,,,0.00,0,Wunderground v.1.15,2013-07-04 09:57:00,
2013-07-04 06:00:00,63.5,59.9,30.00,North,360,0.0,0.0,88,0.00,,,0.00,0,Wunderground v.1.15,2013-07-04 10:00:00,
2013-07-04 06:02:00,63.5,59.9,30.00,North,360,0.0,0.0,88,0.00,,,0.00,0,Wunderground v.1.15,2013-07-04 10:02:00,
2013-07-04 06:06:00,63.5,59.9,30.00,North,360,0.0,0.0,88,0.00,,,0.00,0,Wunderground v.1.15,2013-07-04 10:06:00,
2013-07-04 06:07:00,63.5,60.2,30.00,North,360,0.0,0.0,89,0.00,,,0.00,0,Wunderground v.1.15,2013-07-04 10:07:00,
2013-07-04 06:08:00,63.5,60.2,30.00,North,360,0.0,0.0,89,0.00,,,0.00,0,Wunderground v.1.15,2013-07-04 10:08:00,
2013-07-04 06:09:00,63.5,60.2,30.00,North,360,0.0,0.0,89,0.00,,,0.00,0,Wunderground v.1.15,2013-07-04 10:09:00,
2013-07-04 06:11:00,63.4,60.1,30.00,North,360,0.0,0.0,89,0.00,,,0.00,0,Wunderground v.1.15,2013-07-04 10:11:00,
2013-07-04 06:15:00,63.4,60.1,30.00,North,360,0.0,0.0,89,0.00,,,0.00,5,Wunderground v.1.15,2013-07-04 10:15:00,
2013-07-04 06:16:00,63.4,60.1,30.00,North,360,0.0,0.0,89,0.00,,,0.00,5,Wunderground v.1.15,2013-07-04 10:16:00,
2013-07-04 06:17:00,63.4,60.1,30.00,North,360,0.0,0.0,89,0.00,,,0.00,5,Wunderground v.1.15,2013-07-04 10:17:00,
2013-07-04 06:22:00,63.4,60.1,30.00,North,360,0.0,0.0,89,0.00,,,0.00,7,Wunderground v.1.15,2013-07-04 10:22:00,
2013-07-04 06:23:00,63.4,60.1,30.00,North,360,0.0,0.0,89,0.00,,,0.00,7,Wunderground v.1.15,2013-07-04 10:23:00,
2013-07-04 06:24:00,63.4,60.1,30.00,North,360,0.0,0.0,89,0.00,,,0.00,7,Wunderground v.1.15,2013-07-04 10:24:00,
2013-07-04 06:26:00,63.3,60.0,30.00,North,360,0.0,0.0,89,0.00,,,0.00,9,Wunderground v.1.15,2013-07-04 10:26:00,
2013-07-04 06:29:00,63.3,60.0,30.00,North,360,0.0,0.0,89,0.00,,,0.00,11,Wunderground v.1.15,2013-07-04 10:29:00,
2013-07-04 06:30:00,63.3,60.0,30.00,North,360,0.0,0.0,89,0.00,,,0.00,11,Wunderground v.1.15,2013-07-04 10:30:00,
2013-07-04 06:31:00,63.3,60.0,30.00,North,360,0.0,0.0,89,0.00,,,0.00,11,Wunderground v.1.15,2013-07-04 10:31:00,
2013-07-04 06:36:00,63.3,60.3,30.00,North,360,0.0,0.0,90,0.00,,,0.00,14,Wunderground v.1.15,2013-07-04 10:36:00,
2013-07-04 06:37:00,63.3,60.3,30.00,North,360,0.0,0.0,90,0.00,,,0.00,16,Wunderground v.1.15,2013-07-04 10:37:00,
2013-07-04 06:38:00,63.3,60.3,30.00,North,360,0.0,0.0,90,0.00,,,0.00,14,Wunderground v.1.15,2013-07-04 10:38:00,
2013-07-04 06:39:00,63.3,60.3,30.01,North,360,0.0,0.0,90,0.00,,,0.00,14,Wunderground v.1.15,2013-07-04 10:39:00,
2013-07-04 06:41:00,63.3,60.3,30.00,North,360,0.0,0.0,90,0.00,,,0.00,14,Wunderground v.1.15,2013-07-04 10:41:00,
2013-07-04 06:42:00,63.3,60.3,30.00,North,360,0.0,0.0,90,0.00,,,0.00,14,Wunderground v.1.15,2013-07-04 10:42:00,
2013-07-04 06:43:00,63.4,60.4,30.01,North,360,0.0,0.0,90,0.00,,,0.00,14,Wunderground v.1.15,2013-07-04 10:43:00,
2013-07-04 06:49:00,63.4,60.4,30.00,North,360,0.0,0.0,90,0.00,,,0.00,14,Wunderground v.1.15,2013-07-04 10:49:00,
2013-07-04 06:50:00,63.4,60.4,30.00,North,360,0.0,0.0,90,0.00,,,0.00,14,Wunderground v.1.15,2013-07-04 10:50:00,
2013-07-04 06:51:00,63.4,60.4,30.01,North,360,0.0,0.0,90,0.00,,,0.00,16,Wunderground v.1.15,2013-07-04 10:51:00,
2013-07-04 06:52:00,63.5,60.5,30.01,North,360,0.0,0.0,90,0.00,,,0.00,16,Wunderground v.1.15,2013-07-04 10:52:00,
2013-07-04 06:57:00,63.5,60.8,30.01,North,360,0.0,0.0,91,0.00,,,0.00,30,Wunderground v.1.15,2013-07-04 10:57:00,
2013-07-04 06:59:00,63.5,60.8,30.01,North,360,0.0,0.0,91,0.00,,,0.00,28,Wunderground v.1.15,2013-07-04 10:59:00,
2013-07-04 07:00:00,63.5,60.8,30.01,North,360,0.0,0.0,91,0.00,,,0.00,28,Wunderground v.1.15,2013-07-04 11:00:00,
2013-07-04 07:02:00,63.6,60.9,30.01,North,360,0.0,0.0,91,0.00,,,0.00,26,Wunderground v.1.15,2013-07-04 11:02:00,
2013-07-04 07:03:00,63.6,60.9,30.01,North,360,0.0,0.0,91,0.00,,,0.00,26,Wunderground v.1.15,2013-07-04 11:03:00,
2013-07-04 07:04:00,63.6,60.9,30.01,North,360,0.0,0.0,91,0.00,,,0.00,26,Wunderground v.1.15,2013-07-04 11:04:00,
2013-07-04 07:05:00,63.6,60.9,30.01,North,360,0.0,0.0,91,0.00,,,0.00,28,Wunderground v.1.15,2013-07-04 11:05:00,
2013-07-04 07:10:00,63.7,61.0,30.01,North,360,0.0,0.0,91,0.00,,,0.00,39,Wunderground v.1.15,2013-07-04 11:10:00,
2013-07-04 07:11:00,63.7,61.0,30.01,North,360,0.0,0.0,91,0.00,,,0.00,35,Wunderground v.1.15,2013-07-04 11:11:00,
2013-07-04 07:13:00,63.7,60.7,30.01,North,360,0.0,0.0,90,0.00,,,0.00,28,Wunderground v.1.15,2013-07-04 11:13:00,
2013-07-04 07:14:00,63.7,60.7,30.01,North,360,0.0,0.0,90,0.00,,,0.00,25,Wunderground v.1.15,2013-07-04 11:14:00,
2013-07-04 07:15:00,63.8,61.1,30.01,North,360,0.0,0.0,91,0.00,,,0.00,23,Wunderground v.1.15,2013-07-04 11:15:00,
2013-07-04 07:17:00,63.8,61.1,30.01,North,360,0.0,0.0,91,0.00,,,0.00,25,Wunderground v.1.15,2013-07-04 11:17:00,
2013-07-04 07:23:00,64.0,61.3,30.00,North,360,0.0,0.0,91,0.00,,,0.00,28,Wunderground v.1.15,2013-07-04 11:23:00,
2013-07-04 07:24:00,64.0,61.3,30.01,North,360,0.0,0.0,91,0.00,,,0.00,32,Wunderground v.1.15,2013-07-04 11:24:00,
2013-07-04 07:25:00,64.0,61.3,30.01,North,360,0.0,0.0,91,0.00,,,0.00,32,Wunderground v.1.15,2013-07-04 11:25:00,
2013-07-04 07:29:00,64.1,61.4,30.01,North,360,0.0,0.0,91,0.00,,,0.00,35,Wunderground v.1.15,2013-07-04 11:29:00,
2013-07-04 07:30:00,64.2,61.5,30.01,North,360,0.0,0.0,91,0.00,,,0.00,40,Wunderground v.1.15,2013-07-04 11:30:00,
2013-07-04 07:31:00,64.2,61.5,30.01,North,360,0.0,0.0,91,0.00,,,0.00,44,Wunderground v.1.15,2013-07-04 11:31:00,
2013-07-04 07:32:00,64.2,61.5,30.01,North,360,0.0,0.0,91,0.00,,,0.00,44,Wunderground v.1.15,2013-07-04 11:32:00,
2013-07-04 07:33:00,64.2,61.5,30.01,North,360,0.0,0.0,91,0.00,,,0.00,49,Wunderground v.1.15,2013-07-04 11:33:00,
2013-07-04 07:38:00,64.4,61.7,30.01,North,360,0.0,0.0,91,0.00,,,0.00,54,Wunderground v.1.15,2013-07-04 11:38:00,
2013-07-04 07:40:00,64.5,61.8,30.01,North,360,0.0,0.0,91,0.00,,,0.00,53,Wunderground v.1.15,2013-07-04 11:40:00,
2013-07-04 07:42:00,64.6,61.9,30.01,North,360,0.0,0.0,91,0.00,,,0.00,56,Wunderground v.1.15,2013-07-04 11:42:00,
2013-07-04 07:44:00,64.6,61.9,30.01,North,360,0.0,0.0,91,0.00,,,0.00,56,Wunderground v.1.15,2013-07-04 11:44:00,
2013-07-04 07:46:00,64.7,62.0,30.01,North,360,0.0,0.0,91,0.00,,,0.00,62,Wunderground v.1.15,2013-07-04 11:46:00,
2013-07-04 07:47:00,64.7,62.0,30.01,North,360,0.0,0.0,91,0.00,,,0.00,58,Wunderground v.1.15,2013-07-04 11:47:00,
2013-07-04 07:48:00,64.8,62.1,30.01,North,360,0.0,0.0,91,0.00,,,0.00,53,Wunderground v.1.15,2013-07-04 11:48:00,
2013-07-04 07:49:00,64.8,62.1,30.01,North,360,0.0,0.0,91,0.00,,,0.00,49,Wunderground v.1.15,2013-07-04 11:49:00,
2013-07-04 07:52:00,64.9,62.2,30.01,North,360,0.0,0.0,91,0.00,,,0.00,51,Wunderground v.1.15,2013-07-04 11:52:00,
2013-07-04 07:53:00,65.0,62.3,30.01,North,360,0.0,0.0,91,0.00,,,0.00,46,Wunderground v.1.15,2013-07-04 11:53:00,
2013-07-04 07:54:00,65.0,62.3,30.02,North,360,0.0,0.0,91,0.00,,,0.00,42,Wunderground v.1.15,2013-07-04 11:54:00,
2013-07-04 07:56:00,65.0,62.3,30.02,North,360,0.0,0.0,91,0.00,,,0.00,40,Wunderground v.1.15,2013-07-04 11:56:00,
2013-07-04 07:59:00,65.0,62.0,30.01,North,360,0.0,0.0,90,0.00,,,0.00,53,Wunderground v.1.15,2013-07-04 11:59:00,
2013-07-04 08:00:00,65.1,62.1,30.02,North,360,0.0,0.0,90,0.00,,,0.00,58,Wunderground v.1.15,2013-07-04 12:00:00,
2013-07-04 08:02:00,65.1,62.1,30.02,North,360,0.0,0.0,90,0.00,,,0.00,63,Wunderground v.1.15,2013-07-04 12:02:00,
2013-07-04 08:05:00,65.1,62.1,30.02,North,360,0.0,0.0,90,0.00,,,0.00,65,Wunderground v.1.15,2013-07-04 12:05:00,
2013-07-04 08:06:00,65.2,62.2,30.02,North,360,0.0,0.0,90,0.00,,,0.00,60,Wunderground v.1.15,2013-07-04 12:06:00,
2013-07-04 08:07:00,65.2,62.2,30.02,North,360,0.0,0.0,90,0.00,,,0.00,54,Wunderground v.1.15,2013-07-04 12:07:00,
2013-07-04 08:12:00,65.3,62.6,30.02,North,360,0.0,0.0,91,0.00,,,0.00,51,Wunderground v.1.15,2013-07-04 12:12:00,
2013-07-04 08:13:00,65.4,62.7,30.02,North,360,0.0,0.0,91,0.00,,,0.00,56,Wunderground v.1.15,2013-07-04 12:13:00,
2013-07-04 08:15:00,65.4,62.7,30.02,North,360,0.0,0.0,91,0.00,,,0.00,58,Wunderground v.1.15,2013-07-04 12:15:00,
2013-07-04 08:18:00,65.4,62.7,30.02,North,360,0.0,0.0,91,0.00,,,0.00,46,Wunderground v.1.15,2013-07-04 12:18:00,
2013-07-04 08:19:00,65.5,62.8,30.02,North,360,0.0,0.0,91,0.00,,,0.00,49,Wunderground v.1.15,2013-07-04 12:19:00,
2013-07-04 08:20:00,65.5,62.8,30.02,North,360,0.0,0.0,91,0.00,,,0.00,54,Wunderground v.1.15,2013-07-04 12:20:00,
2013-07-04 08:21:00,65.5,62.8,30.02,North,360,0.0,0.0,91,0.00,,,0.00,56,Wunderground v.1.15,2013-07-04 12:21:00,
2013-07-04 08:24:00,65.6,62.9,30.02,North,360,0.0,0.0,91,0.00,,,0.00,60,Wunderground v.1.15,2013-07-04 12:24:00,
2013-07-04 08:26:00,65.6,62.9,30.02,North,360,0.0,0.0,91,0.00,,,0.00,51,Wunderground v.1.15,2013-07-04 12:26:00,
2013-07-04 08:28:00,65.6,62.9,30.02,North,360,0.0,0.0,91,0.00,,,0.00,39,Wunderground v.1.15,2013-07-04 12:28:00,
2013-07-04 08:29:00,65.6,62.9,30.02,North,360,0.0,0.0,91,0.00,,,0.00,39,Wunderground v.1.15,2013-07-04 12:29:00,
2013-07-04 08:31:00,65.6,62.9,30.02,North,360,0.0,0.0,91,0.00,,,0.00,40,Wunderground v.1.15,2013-07-04 12:31:00,
2013-07-04 08:32:00,65.7,63.0,30.02,North,360,0.0,0.0,91,0.00,,,0.00,42,Wunderground v.1.15,2013-07-04 12:32:00,
2013-07-04 08:36:00,65.8,63.1,30.02,North,360,0.0,0.0,91,0.00,,,0.00,40,Wunderground v.1.15,2013-07-04 12:36:00,
2013-07-04 08:38:00,65.8,63.1,30.02,North,360,0.0,0.0,91,0.00,,,0.00,46,Wunderground v.1.15,2013-07-04 12:38:00,
2013-07-04 08:43:00,66.0,63.3,30.02,North,360,0.0,0.0,91,0.00,,,0.00,51,Wunderground v.1.15,2013-07-04 12:43:00,
2013-07-04 08:44:00,66.1,63.4,30.02,North,360,0.0,0.0,91,0.00,,,0.00,51,Wunderground v.1.15,2013-07-04 12:44:00,
2013-07-04 08:46:00,66.2,63.5,30.02,North,360,0.0,0.0,91,0.00,,,0.00,51,Wunderground v.1.15,2013-07-04 12:46:00,
2013-07-04 08:50:00,66.3,63.6,30.02,North,360,0.0,0.0,91,0.00,,,0.00,70,Wunderground v.1.15,2013-07-04 12:50:00,
2013-07-04 08:53:00,66.5,63.8,30.02,North,360,0.0,0.0,91,0.00,,,0.00,109,Wunderground v.1.15,2013-07-04 12:53:00,
2013-07-04 08:56:00,66.6,63.9,30.02,North,360,0.0,0.0,91,0.00,,,0.00,95,Wunderground v.1.15,2013-07-04 12:56:00,
2013-07-04 08:57:00,66.6,63.9,30.03,North,360,0.0,0.0,91,0.00,,,0.00,76,Wunderground v.1.15,2013-07-04 12:57:00,
2013-07-04 09:00:00,66.8,64.1,30.03,North,360,0.0,0.0,91,0.00,,,0.00,67,Wunderground v.1.15,2013-07-04 13:00:00,
2013-07-04 09:02:00,66.9,64.2,30.02,North,360,0.0,0.0,91,0.00,,,0.00,62,Wunderground v.1.15,2013-07-04 13:02:00,
2013-07-04 09:03:00,66.9,63.9,30.02,North,360,0.0,0.0,90,0.00,,,0.00,62,Wunderground v.1.15,2013-07-04 13:03:00,
2013-07-04 09:07:00,67.1,64.1,30.03,North,360,0.0,0.0,90,0.00,,,0.00,63,Wunderground v.1.15,2013-07-04 13:07:00,
2013-07-04 09:08:00,67.1,64.1,30.02,North,360,0.0,0.0,90,0.00,,,0.00,70,Wunderground v.1.15,2013-07-04 13:08:00,
2013-07-04 09:10:00,67.2,64.2,30.02,North,360,0.0,0.0,90,0.00,,,0.00,105,Wunderground v.1.15,2013-07-04 13:10:00,
2013-07-04 09:15:00,67.3,63.9,30.03,North,360,0.0,0.0,89,0.00,,,0.00,111,Wunderground v.1.15,2013-07-04 13:15:00,
2013-07-04 09:17:00,67.4,64.0,30.03,North,360,0.0,0.0,89,0.00,,,0.00,113,Wunderground v.1.15,2013-07-04 13:17:00,
2013-07-04 09:18:00,67.4,64.0,30.02,North,360,0.0,0.0,89,0.00,,,0.00,102,Wunderground v.1.15,2013-07-04 13:18:00,
2013-07-04 09:19:00,67.4,64.0,30.02,North,360,0.0,0.0,89,0.00,,,0.00,100,Wunderground v.1.15,2013-07-04 13:19:00,
2013-07-04 09:21:00,67.4,64.0,30.03,North,360,0.0,0.0,89,0.00,,,0.00,97,Wunderground v.1.15,2013-07-04 13:21:00,
2013-07-04 09:23:00,67.5,64.1,30.03,North,360,0.0,0.0,89,0.00,,,0.00,105,Wunderground v.1.15,2013-07-04 13:23:00,
2013-07-04 09:24:00,67.5,64.1,30.03,North,360,0.0,0.0,89,0.00,,,0.00,102,Wunderground v.1.15,2013-07-04 13:24:00,
2013-07-04 09:26:00,67.6,64.2,30.03,North,360,0.0,0.0,89,0.00,,,0.00,111,Wunderground v.1.15,2013-07-04 13:26:00,
2013-07-04 09:28:00,67.6,63.9,30.03,North,360,0.0,0.0,88,0.00,,,0.00,111,Wunderground v.1.15,2013-07-04 13:28:00,
2013-07-04 09:29:00,67.6,63.9,30.03,North,360,0.0,0.0,88,0.00,,,0.00,102,Wunderground v.1.15,2013-07-04 13:29:00,
2013-07-04 09:30:00,67.6,63.9,30.03,North,360,0.0,0.0,88,0.00,,,0.00,102,Wunderground v.1.15,2013-07-04 13:30:00,
2013-07-04 09:33:00,67.7,63.7,30.03,North,360,0.0,0.0,87,0.00,,,0.00,58,Wunderground v.1.15,2013-07-04 13:33:00,
2013-07-04 09:35:00,67.7,63.7,30.03,North,360,0.0,0.0,87,0.00,,,0.00,49,Wunderground v.1.15,2013-07-04 13:35:00,
2013-07-04 09:36:00,67.7,63.7,30.03,North,360,0.0,0.0,87,0.00,,,0.00,49,Wunderground v.1.15,2013-07-04 13:36:00,
2013-07-04 09:39:00,67.7,63.7,30.03,North,360,0.0,0.0,87,0.00,,,0.00,69,Wunderground v.1.15,2013-07-04 13:39:00,
2013-07-04 09:42:00,67.8,63.8,30.03,North,360,0.0,0.0,87,0.00,,,0.00,63,Wunderground v.1.15,2013-07-04 13:42:00,
2013-07-04 09:43:00,67.8,63.8,30.03,North,360,0.0,0.0,87,0.00,,,0.00,63,Wunderground v.1.15,2013-07-04 13:43:00,
2013-07-04 09:47:00,67.9,63.9,30.03,North,360,0.0,0.0,87,0.00,,,0.00,93,Wunderground v.1.15,2013-07-04 13:47:00,
2013-07-04 09:48:00,67.8,63.8,30.03,North,360,0.0,0.0,87,0.00,,,0.00,88,Wunderground v.1.15,2013-07-04 13:48:00,
2013-07-04 09:50:00,67.9,63.9,30.03,North,360,0.0,0.0,87,0.00,,,0.00,62,Wunderground v.1.15,2013-07-04 13:50:00,
2013-07-04 09:51:00,67.9,63.6,30.03,North,360,0.0,0.0,86,0.00,,,0.00,62,Wunderground v.1.15,2013-07-04 13:51:00,
2013-07-04 09:54:00,67.9,63.6,30.03,North,360,0.0,0.0,86,0.00,,,0.00,46,Wunderground v.1.15,2013-07-04 13:54:00,
2013-07-04 09:55:00,67.9,63.6,30.03,North,360,0.0,0.0,86,0.00,,,0.00,44,Wunderground v.1.15,2013-07-04 13:55:00,
2013-07-04 09:57:00,67.9,63.6,30.03,North,360,0.0,0.0,86,0.00,,,0.00,60,Wunderground v.1.15,2013-07-04 13:57:00,
2013-07-04 09:58:00,67.9,63.6,30.03,North,360,0.0,0.0,86,0.00,,,0.00,69,Wunderground v.1.15,2013-07-04 13:58:00,
2013-07-04 10:00:00,67.9,63.6,30.03,North,360,0.0,0.0,86,0.00,,,0.00,74,Wunderground v.1.15,2013-07-04 14:00:00,
2013-07-04 10:01:00,67.9,63.6,30.03,North,360,0.0,0.0,86,0.00,,,0.00,49,Wunderground v.1.15,2013-07-04 14:01:00,
2013-07-04 10:06:00,67.9,63.6,30.03,North,360,0.0,0.0,86,0.00,,,0.00,35,Wunderground v.1.15,2013-07-04 14:06:00,
2013-07-04 10:09:00,67.9,63.6,30.03,North,360,0.0,0.0,86,0.00,,,0.00,26,Wunderground v.1.15,2013-07-04 14:09:00,
2013-07-04 10:11:00,67.9,63.6,30.03,North,360,0.0,0.0,86,0.00,,,0.00,30,Wunderground v.1.15,2013-07-04 14:11:00,
2013-07-04 10:13:00,67.9,63.6,30.03,North,360,0.0,0.0,86,0.00,,,0.00,30,Wunderground v.1.15,2013-07-04 14:13:00,
2013-07-04 10:15:00,67.9,63.6,30.03,North,360,0.0,0.0,86,0.00,,,0.00,37,Wunderground v.1.15,2013-07-04 14:15:00,
2013-07-04 10:17:00,67.9,63.6,30.03,North,360,0.0,0.0,86,0.00,,,0.00,35,Wunderground v.1.15,2013-07-04 14:17:00,
2013-07-04 10:22:00,67.9,63.6,30.03,North,360,0.0,0.0,86,0.00,,,0.00,53,Wunderground v.1.15,2013-07-04 14:22:00,
2013-07-04 10:23:00,67.8,63.5,30.03,North,360,0.0,0.0,86,0.00,,,0.00,47,Wunderground v.1.15,2013-07-04 14:23:00,
2013-07-04 10:24:00,67.8,63.5,30.03,North,360,0.0,0.0,86,0.00,,,0.00,46,Wunderground v.1.15,2013-07-04 14:24:00,
2013-07-04 10:25:00,67.9,63.6,30.03,WSW,252,0.0,0.0,86,0.00,,,0.00,44,Wunderground v.1.15,2013-07-04 14:25:00,
2013-07-04 10:28:00,67.8,63.5,30.03,WSW,252,0.0,0.0,86,0.00,,,0.00,53,Wunderground v.1.15,2013-07-04 14:28:00,
2013-07-04 10:29:00,67.8,63.5,30.03,WSW,252,0.0,0.0,86,0.00,,,0.00,62,Wunderground v.1.15,2013-07-04 14:29:00,
2013-07-04 10:30:00,67.8,63.5,30.03,WSW,252,0.0,0.0,86,0.00,,,0.00,79,Wunderground v.1.15,2013-07-04 14:30:00,
2013-07-04 10:31:00,67.9,63.6,30.03,WSW,252,0.0,0.0,86,0.00,,,0.00,79,Wunderground v.1.15,2013-07-04 14:31:00,
2013-07-04 10:32:00,67.9,63.6,30.03,WSW,252,0.0,0.0,86,0.00,,,0.00,76,Wunderground v.1.15,2013-07-04 14:32:00,
2013-07-04 10:35:00,67.9,63.9,30.03,WSW,252,0.0,0.0,87,0.00,,,0.00,69,Wunderground v.1.15,2013-07-04 14:35:00,
2013-07-04 10:36:00,67.9,63.9,30.03,WSW,252,0.0,0.0,87,0.00,,,0.00,67,Wunderground v.1.15,2013-07-04 14:36:00,
2013-07-04 10:39:00,67.9,63.9,30.03,WSW,252,0.0,0.0,87,0.00,,,0.00,77,Wunderground v.1.15,2013-07-04 14:39:00,
2013-07-04 10:40:00,68.0,64.0,30.03,WSW,252,0.0,0.0,87,0.00,,,0.00,76,Wunderground v.1.15,2013-07-04 14:40:00,
2013-07-04 10:41:00,68.0,64.0,30.03,WSW,252,0.0,0.0,87,0.00,,,0.00,84,Wunderground v.1.15,2013-07-04 14:41:00,
2013-07-04 10:42:00,68.0,64.0,30.03,WSW,252,0.0,0.0,87,0.00,,,0.00,88,Wunderground v.1.15,2013-07-04 14:42:00,
2013-07-04 10:43:00,68.1,64.1,30.03,WSW,252,0.0,0.0,87,0.00,,,0.00,70,Wunderground v.1.15,2013-07-04 14:43:00,
2013-07-04 10:45:00,68.1,64.1,30.03,WSW,252,0.0,0.0,87,0.00,,,0.00,105,Wunderground v.1.15,2013-07-04 14:45:00,
2013-07-04 10:49:00,68.1,64.1,30.03,WSW,252,0.0,0.0,87,0.00,,,0.00,79,Wunderground v.1.15,2013-07-04 14:49:00,
2013-07-04 10:50:00,68.1,64.1,30.03,WSW,252,0.0,0.0,87,0.00,,,0.00,62,Wunderground v.1.15,2013-07-04 14:50:00,
2013-07-04 10:51:00,68.1,64.1,30.03,WSW,252,0.0,0.0,87,0.00,,,0.00,53,Wunderground v.1.15,2013-07-04 14:51:00,
2013-07-04 10:52:00,68.1,64.1,30.03,WSW,252,0.0,0.0,87,0.00,,,0.00,46,Wunderground v.1.15,2013-07-04 14:52:00,
2013-07-04 10:55:00,68.2,64.2,30.03,WSW,252,0.0,0.0,87,0.00,,,0.00,67,Wunderground v.1.15,2013-07-04 14:55:00,
2013-07-04 10:57:00,68.2,64.2,30.03,NW,308,0.0,0.0,87,0.00,,,0.00,76,Wunderground v.1.15,2013-07-04 14:57:00,
2013-07-04 11:01:00,68.1,64.1,30.03,NW,308,0.0,0.0,87,0.00,,,0.00,141,Wunderground v.1.15,2013-07-04 15:01:00,
2013-07-04 11:02:00,68.2,64.2,30.03,NW,308,0.0,0.0,87,0.00,,,0.00,149,Wunderground v.1.15,2013-07-04 15:02:00,
2013-07-04 11:03:00,68.2,64.2,30.03,NW,308,0.0,0.0,87,0.00,,,0.00,172,Wunderground v.1.15,2013-07-04 15:03:00,
2013-07-04 11:06:00,68.3,64.3,30.03,NW,308,0.0,0.0,87,0.00,,,0.00,200,Wunderground v.1.15,2013-07-04 15:06:00,
2013-07-04 11:07:00,68.3,64.3,30.03,NW,308,0.0,0.0,87,0.00,,,0.00,213,Wunderground v.1.15,2013-07-04 15:07:00,
2013-07-04 11:09:00,68.4,64.4,30.03,NW,308,0.0,0.0,87,0.00,,,0.00,225,Wunderground v.1.15,2013-07-04 15:09:00,
2013-07-04 11:11:00,68.5,64.5,30.03,NW,308,0.0,0.0,87,0.00,,,0.00,234,Wunderground v.1.15,2013-07-04 15:11:00,
2013-07-04 11:13:00,68.6,64.6,30.03,NW,308,0.0,0.0,87,0.00,,,0.00,113,Wunderground v.1.15,2013-07-04 15:13:00,
2013-07-04 11:14:00,68.6,64.6,30.03,NW,308,0.0,0.0,87,0.00,,,0.00,104,Wunderground v.1.15,2013-07-04 15:14:00,
2013-07-04 11:16:00,68.7,64.7,30.03,NW,308,0.0,0.0,87,0.00,,,0.00,105,Wunderground v.1.15,2013-07-04 15:16:00,
2013-07-04 11:17:00,68.8,64.4,30.03,WNW,294,0.0,0.0,86,0.00,,,0.00,111,Wunderground v.1.15,2013-07-04 15:17:00,
2013-07-04 11:20:00,68.8,64.4,30.03,WNW,294,0.0,0.0,86,0.00,,,0.00,109,Wunderground v.1.15,2013-07-04 15:20:00,
2013-07-04 11:21:00,68.8,64.4,30.03,WNW,294,0.0,0.0,86,0.00,,,0.00,109,Wunderground v.1.15,2013-07-04 15:21:00,
2013-07-04 11:22:00,68.8,64.4,30.03,WNW,294,0.0,0.0,86,0.00,,,0.00,109,Wunderground v.1.15,2013-07-04 15:22:00,
2013-07-04 11:23:00,68.8,64.4,30.03,WNW,294,0.0,0.0,86,0.00,,,0.00,111,Wunderground v.1.15,2013-07-04 15:23:00,
2013-07-04 11:26:00,68.9,64.2,30.03,WNW,294,0.0,0.0,85,0.00,,,0.00,111,Wunderground v.1.15,2013-07-04 15:26:00,
2013-07-04 11:28:00,68.9,64.2,30.03,WNW,294,0.0,0.0,85,0.00,,,0.00,251,Wunderground v.1.15,2013-07-04 15:28:00,
2013-07-04 11:32:00,69.0,64.6,30.03,WNW,294,0.0,0.0,86,0.00,,,0.00,251,Wunderground v.1.15,2013-07-04 15:32:00,
2013-07-04 11:33:00,69.1,64.7,30.03,WNW,294,0.0,0.0,86,0.00,,,0.00,211,Wunderground v.1.15,2013-07-04 15:33:00,
2013-07-04 11:34:00,69.2,64.8,30.03,WNW,294,0.0,0.0,86,0.00,,,0.00,200,Wunderground v.1.15,2013-07-04 15:34:00,
2013-07-04 11:36:00,69.3,64.9,30.03,WNW,294,0.0,0.0,86,0.00,,,0.00,176,Wunderground v.1.15,2013-07-04 15:36:00,
2013-07-04 11:40:00,69.5,64.5,30.03,WNW,294,0.0,0.0,84,0.00,,,0.00,127,Wunderground v.1.15,2013-07-04 15:40:00,
2013-07-04 11:41:00,69.5,64.5,30.03,WNW,294,0.0,0.0,84,0.00,,,0.00,109,Wunderground v.1.15,2013-07-04 15:41:00,
2013-07-04 11:43:00,69.6,64.5,30.03,WNW,294,0.0,0.0,84,0.00,,,0.00,100,Wunderground v.1.15,2013-07-04 15:43:00,
2013-07-04 11:44:00,69.6,64.5,30.03,WNW,294,0.0,0.0,84,0.00,,,0.00,95,Wunderground v.1.15,2013-07-04 15:44:00,
2013-07-04 11:46:00,69.7,64.6,30.03,WNW,294,0.0,0.0,84,0.00,,,0.00,107,Wunderground v.1.15,2013-07-04 15:46:00,
2013-07-04 11:48:00,69.7,64.6,30.03,WNW,294,0.0,0.0,84,0.00,,,0.00,118,Wunderground v.1.15,2013-07-04 15:48:00,
2013-07-04 11:49:00,69.7,64.3,30.03,WNW,294,0.0,0.0,83,0.00,,,0.00,95,Wunderground v.1.15,2013-07-04 15:49:00,
2013-07-04 11:50:00,69.7,64.3,30.03,WNW,294,0.0,0.0,83,0.00,,,0.00,86,Wunderground v.1.15,2013-07-04 15:50:00,
2013-07-04 11:52:00,69.7,64.3,30.03,WNW,294,0.0,0.0,83,0.00,,,0.00,88,Wunderground v.1.15,2013-07-04 15:52:00,
2013-07-04 11:55:00,69.7,64.3,30.03,WNW,294,0.0,0.0,83,0.00,,,0.00,72,Wunderground v.1.15,2013-07-04 15:55:00,
2013-07-04 11:56:00,69.7,64.0,30.03,WNW,294,0.0,0.0,82,0.00,,,0.00,72,Wunderground v.1.15,2013-07-04 15:56:00,
2013-07-04 11:57:00,69.7,64.0,30.03,WNW,294,0.0,0.0,82,0.00,,,0.00,70,Wunderground v.1.15,2013-07-04 15:57:00,
2013-07-04 11:58:00,69.7,64.0,30.03,WNW,294,0.0,0.0,82,0.00,,,0.00,69,Wunderground v.1.15,2013-07-04 15:58:00,
2013-07-04 11:59:00,69.7,64.0,30.03,WNW,294,0.0,0.0,82,0.00,,,0.00,63,Wunderground v.1.15,2013-07-04 15:59:00,
2013-07-04 12:02:00,69.7,64.0,30.03,WNW,294,0.0,0.0,82,0.00,,,0.00,69,Wunderground v.1.15,2013-07-04 16:02:00,
2013-07-04 12:04:00,69.6,63.9,30.03,WNW,294,0.0,0.0,82,0.00,,,0.00,97,Wunderground v.1.15,2013-07-04 16:04:00,
2013-07-04 12:05:00,69.7,64.0,30.03,WNW,294,0.0,0.0,82,0.00,,,0.00,97,Wunderground v.1.15,2013-07-04 16:05:00,
2013-07-04 12:08:00,69.6,64.2,30.03,WNW,294,0.0,0.0,83,0.00,,,0.00,132,Wunderground v.1.15,2013-07-04 16:08:00,
2013-07-04 12:10:00,69.6,64.2,30.03,WNW,294,0.0,0.0,83,0.00,,,0.00,127,Wunderground v.1.15,2013-07-04 16:10:00,
2013-07-04 12:12:00,69.6,64.2,30.03,NNW,344,0.0,0.0,83,0.00,,,0.00,144,Wunderground v.1.15,2013-07-04 16:12:00,
2013-07-04 12:13:00,69.6,64.2,30.03,NNW,344,0.0,0.0,83,0.00,,,0.00,139,Wunderground v.1.15,2013-07-04 16:13:00,
2013-07-04 12:18:00,69.7,64.3,30.03,North,355,0.0,0.0,83,0.00,,,0.00,121,Wunderground v.1.15,2013-07-04 16:18:00,
2013-07-04 12:20:00,69.7,64.3,30.03,North,355,0.0,0.0,83,0.00,,,0.00,93,Wunderground v.1.15,2013-07-04 16:20:00,
2013-07-04 12:23:00,69.7,64.3,30.03,North,355,0.0,0.0,83,0.00,,,0.00,79,Wunderground v.1.15,2013-07-04 16:23:00,
2013-07-04 12:24:00,69.7,64.3,30.03,North,355,0.0,0.0,83,0.00,,,0.00,79,Wunderground v.1.15,2013-07-04 16:24:00,
2013-07-04 12:25:00,69.7,64.3,30.03,North,355,0.0,0.0,83,0.00,,,0.00,98,Wunderground v.1.15,2013-07-04 16:25:00,
2013-07-04 12:26:00,69.7,64.3,30.03,NW,321,0.0,0.0,83,0.00,,,0.00,107,Wunderground v.1.15,2013-07-04 16:26:00,
2013-07-04 12:29:00,69.7,64.3,30.03,NW,321,0.0,0.0,83,0.00,,,0.00,70,Wunderground v.1.15,2013-07-04 16:29:00,
2013-07-04 12:31:00,69.7,64.3,30.03,North,351,0.0,0.0,83,0.00,,,0.00,72,Wunderground v.1.15,2013-07-04 16:31:00,
2013-07-04 12:32:00,69.6,64.5,30.02,North,351,0.0,0.0,84,0.00,,,0.00,67,Wunderground v.1.15,2013-07-04 16:32:00,
2013-07-04 12:33:00,69.6,64.5,30.02,North,351,0.0,0.0,84,0.00,,,0.00,100,Wunderground v.1.15,2013-07-04 16:33:00,
2013-07-04 12:34:00,69.6,64.5,30.02,NNW,343,0.0,0.0,84,0.00,,,0.00,160,Wunderground v.1.15,2013-07-04 16:34:00,
2013-07-04 12:38:00,69.6,64.5,30.02,WNW,291,0.0,0.0,84,0.00,,,0.00,411,Wunderground v.1.15,2013-07-04 16:38:00,
2013-07-04 12:40:00,69.7,65.0,30.02,SSW,198,0.0,0.0,85,0.00,,,0.00,566,Wunderground v.1.15,2013-07-04 16:40:00,
2013-07-04 12:41:00,69.7,65.0,30.02,SSW,198,0.0,0.0,85,0.00,,,0.00,566,Wunderground v.1.15,2013-07-04 16:41:00,
2013-07-04 12:46:00,70.0,64.9,30.02,NW,306,0.0,0.0,84,0.00,,,0.00,281,Wunderground v.1.15,2013-07-04 16:46:00,
2013-07-04 12:47:00,70.0,64.9,30.02,NW,307,0.0,0.0,84,0.00,,,0.00,355,Wunderground v.1.15,2013-07-04 16:47:00,
2013-07-04 12:49:00,70.1,65.0,30.02,NW,306,0.0,0.0,84,0.00,,,0.00,345,Wunderground v.1.15,2013-07-04 16:49:00,
2013-07-04 12:50:00,70.1,65.0,30.02,NW,306,0.0,0.0,84,0.00,,,0.00,322,Wunderground v.1.15,2013-07-04 16:50:00,
2013-07-04 12:55:00,70.3,65.2,30.02,NW,306,0.0,0.0,84,0.00,,,0.00,302,Wunderground v.1.15,2013-07-04 16:55:00,
2013-07-04 12:56:00,70.4,65.3,30.02,NW,306,0.0,0.0,84,0.00,,,0.00,320,Wunderground v.1.15,2013-07-04 16:56:00,
2013-07-04 12:57:00,70.4,65.3,30.02,NW,306,0.0,0.0,84,0.00,,,0.00,357,Wunderground v.1.15,2013-07-04 16:57:00,
2013-07-04 13:00:00,70.6,65.2,30.02,NW,306,0.0,0.0,83,0.00,,,0.00,338,Wunderground v.1.15,2013-07-04 17:00:00,
2013-07-04 13:01:00,70.6,65.5,30.02,WNW,300,0.0,0.0,84,0.00,,,0.00,276,Wunderground v.1.15,2013-07-04 17:01:00,
2013-07-04 13:03:00,70.7,65.3,30.02,WNW,300,0.0,0.0,83,0.00,,,0.00,211,Wunderground v.1.15,2013-07-04 17:03:00,
2013-07-04 13:06:00,70.8,65.4,30.02,WNW,300,0.0,0.0,83,0.00,,,0.00,218,Wunderground v.1.15,2013-07-04 17:06:00,
2013-07-04 13:08:00,70.9,65.5,30.02,WNW,301,0.0,0.0,83,0.00,,,0.00,237,Wunderground v.1.15,2013-07-04 17:08:00,
2013-07-04 13:09:00,70.9,65.1,30.02,WNW,301,0.0,0.0,82,0.00,,,0.00,237,Wunderground v.1.15,2013-07-04 17:09:00,
2013-07-04 13:11:00,70.9,65.1,30.02,WNW,301,0.0,0.0,82,0.00,,,0.00,234,Wunderground v.1.15,2013-07-04 17:11:00,
2013-07-04 13:13:00,70.9,65.1,30.02,WNW,301,0.0,0.0,82,0.00,,,0.00,230,Wunderground v.1.15,2013-07-04 17:13:00,
2013-07-04 13:16:00,70.9,65.1,30.02,WNW,301,0.0,0.0,82,0.00,,,0.00,213,Wunderground v.1.15,2013-07-04 17:16:00,
2013-07-04 13:18:00,70.8,64.7,30.02,WNW,301,0.0,0.0,81,0.00,,,0.00,202,Wunderground v.1.15,2013-07-04 17:18:00,
2013-07-04 13:19:00,70.9,65.1,30.02,West,264,0.0,0.0,82,0.00,,,0.00,197,Wunderground v.1.15,2013-07-04 17:19:00,
2013-07-04 13:20:00,70.9,65.1,30.02,West,264,0.0,0.0,82,0.00,,,0.00,186,Wunderground v.1.15,2013-07-04 17:20:00,
2013-07-04 13:23:00,70.9,65.1,30.02,West,264,0.0,0.0,82,0.00,,,0.00,199,Wunderground v.1.15,2013-07-04 17:23:00,
2013-07-04 13:24:00,71.0,65.2,30.02,West,264,0.0,0.0,82,0.00,,,0.00,214,Wunderground v.1.15,2013-07-04 17:24:00,
2013-07-04 13:26:00,71.0,65.6,30.02,West,264,0.0,0.0,83,0.00,,,0.00,216,Wunderground v.1.15,2013-07-04 17:26:00,
2013-07-04 13:28:00,71.1,65.3,30.02,West,264,0.0,1.0,82,0.00,,,0.00,223,Wunderground v.1.15,2013-07-04 17:28:00,
2013-07-04 13:31:00,71.2,65.4,30.01,West,264,0.0,0.0,82,0.00,,,0.00,234,Wunderground v.1.15,2013-07-04 17:31:00,
2013-07-04 13:35:00,71.3,65.5,30.02,West,264,0.0,0.0,82,0.00,,,0.00,230,Wunderground v.1.15,2013-07-04 17:35:00,
2013-07-04 13:37:00,71.3,65.2,30.02,West,264,0.0,0.0,81,0.00,,,0.00,225,Wunderground v.1.15,2013-07-04 17:37:00,
2013-07-04 13:41:00,71.4,65.3,30.01,West,266,0.0,0.0,81,0.00,,,0.00,244,Wunderground v.1.15,2013-07-04 17:41:00,
2013-07-04 13:43:00,71.4,64.9,30.02,West,266,0.0,0.0,80,0.00,,,0.00,343,Wunderground v.1.15,2013-07-04 17:43:00,
2013-07-04 13:44:00,71.5,65.4,30.01,West,266,0.0,0.0,81,0.00,,,0.00,299,Wunderground v.1.15,2013-07-04 17:44:00,
2013-07-04 13:45:00,71.5,65.4,30.01,West,266,0.0,0.0,81,0.00,,,0.00,311,Wunderground v.1.15,2013-07-04 17:45:00,
2013-07-04 13:47:00,71.6,65.5,30.01,West,266,0.0,0.0,81,0.00,,,0.00,316,Wunderground v.1.15,2013-07-04 17:47:00,
2013-07-04 13:51:00,71.7,65.6,30.01,West,266,0.0,0.0,81,0.00,,,0.00,336,Wunderground v.1.15,2013-07-04 17:51:00,
2013-07-04 13:52:00,71.8,65.7,30.01,West,266,0.0,0.0,81,0.00,,,0.00,464,Wunderground v.1.15,2013-07-04 17:52:00,
2013-07-04 13:53:00,71.9,65.8,30.01,West,266,0.0,0.0,81,0.00,,,0.00,396,Wunderground v.1.15,2013-07-04 17:53:00,
2013-07-04 13:55:00,72.1,65.9,30.01,West,266,0.0,0.0,81,0.00,,,0.00,355,Wunderground v.1.15,2013-07-04 17:55:00,
2013-07-04 13:57:00,72.2,66.0,30.01,West,266,0.0,0.0,81,0.00,,,0.00,371,Wunderground v.1.15,2013-07-04 17:57:00,
2013-07-04 14:01:00,72.7,66.9,30.01,West,266,0.0,0.0,82,0.00,,,0.00,1090,Wunderground v.1.15,2013-07-04 18:01:00,
2013-07-04 14:02:00,72.8,66.6,30.01,West,266,0.0,0.0,81,0.00,,,0.00,1090,Wunderground v.1.15,2013-07-04 18:02:00,
2013-07-04 14:04:00,73.1,66.9,30.01,West,265,0.0,0.0,81,0.00,,,0.00,1090,Wunderground v.1.15,2013-07-04 18:04:00,
2013-07-04 14:08:00,73.8,66.9,30.01,West,265,0.0,0.0,79,0.00,,,0.00,413,Wunderground v.1.15,2013-07-04 18:08:00,
2013-07-04 14:10:00,74.1,67.2,30.01,West,265,0.0,0.0,79,0.00,,,0.00,918,Wunderground v.1.15,2013-07-04 18:10:00,
2013-07-04 14:13:00,74.5,66.8,30.01,SW,223,0.0,0.0,77,0.00,,,0.00,918,Wunderground v.1.15,2013-07-04 18:13:00,
2013-07-04 14:16:00,74.9,67.2,30.01,SW,223,0.0,0.0,77,0.00,,,0.00,933,Wunderground v.1.15,2013-07-04 18:16:00,
2013-07-04 14:19:00,75.4,67.7,30.01,SW,219,0.0,0.0,77,0.00,,,0.00,891,Wunderground v.1.15,2013-07-04 18:19:00,
2013-07-04 14:22:00,75.8,66.5,30.01,SW,221,0.0,0.0,73,0.00,,,0.00,884,Wunderground v.1.15,2013-07-04 18:22:00,
2013-07-04 14:24:00,75.9,67.0,30.01,SW,220,0.0,0.0,74,0.00,,,0.00,881,Wunderground v.1.15,2013-07-04 18:24:00,
2013-07-04 14:26:00,76.1,66.8,30.01,SSW,201,0.0,0.0,73,0.00,,,0.00,884,Wunderground v.1.15,2013-07-04 18:26:00,
2013-07-04 14:28:00,76.3,66.6,30.01,SSW,201,0.0,0.0,72,0.00,,,0.00,884,Wunderground v.1.15,2013-07-04 18:28:00,
2013-07-04 14:30:00,76.4,66.7,30.01,SSW,201,0.0,0.0,72,0.00,,,0.00,884,Wunderground v.1.15,2013-07-04 18:30:00,
2013-07-04 14:32:00,76.5,66.8,30.01,SSW,201,0.0,0.0,72,0.00,,,0.00,200,Wunderground v.1.15,2013-07-04 18:32:00,
2013-07-04 14:35:00,76.6,66.9,30.01,SSW,201,0.0,0.0,72,0.00,,,0.00,204,Wunderground v.1.15,2013-07-04 18:35:00,
2013-07-04 14:37:00,76.6,66.5,30.01,SSW,201,0.0,0.0,71,0.00,,,0.00,202,Wunderground v.1.15,2013-07-04 18:37:00,
2013-07-04 14:41:00,76.5,66.4,30.01,SSW,201,0.0,0.0,71,0.00,,,0.00,244,Wunderground v.1.15,2013-07-04 18:41:00,
2013-07-04 14:43:00,76.4,66.3,30.01,SSW,201,0.0,0.0,71,0.00,,,0.00,260,Wunderground v.1.15,2013-07-04 18:43:00,
2013-07-04 14:44:00,76.4,66.3,30.00,SSW,201,0.0,0.0,71,0.00,,,0.00,267,Wunderground v.1.15,2013-07-04 18:44:00,
2013-07-04 14:46:00,76.3,66.2,30.01,SSW,201,0.0,0.0,71,0.00,,,0.00,297,Wunderground v.1.15,2013-07-04 18:46:00,
2013-07-04 14:47:00,76.3,66.2,30.00,SSW,201,0.0,0.0,71,0.00,,,0.00,287,Wunderground v.1.15,2013-07-04 18:47:00,
2013-07-04 14:49:00,76.2,66.1,30.00,SSW,201,0.0,0.0,71,0.00,,,0.00,311,Wunderground v.1.15,2013-07-04 18:49:00,
2013-07-04 14:52:00,76.2,66.5,30.00,SSW,201,0.0,0.0,72,0.00,,,0.00,380,Wunderground v.1.15,2013-07-04 18:52:00,
2013-07-04 14:53:00,76.2,66.9,30.00,SSW,201,0.0,0.0,73,0.00,,,0.00,380,Wunderground v.1.15,2013-07-04 18:53:00,
2013-07-04 14:54:00,76.3,67.0,30.00,SSW,201,0.0,0.0,73,0.00,,,0.00,278,Wunderground v.1.15,2013-07-04 18:54:00,
2013-07-04 14:58:00,76.5,67.2,30.00,SSW,201,0.0,0.0,73,0.00,,,0.00,932,Wunderground v.1.15,2013-07-04 18:58:00,
2013-07-04 15:02:00,76.9,67.2,30.00,SSW,203,0.0,0.0,72,0.00,,,0.00,227,Wunderground v.1.15,2013-07-04 19:02:00,
2013-07-04 15:03:00,77.1,67.4,30.00,SSW,203,0.0,0.0,72,0.00,,,0.00,199,Wunderground v.1.15,2013-07-04 19:03:00,
2013-07-04 15:04:00,77.1,67.0,30.00,NNE,24,0.0,0.0,71,0.00,,,0.00,209,Wunderground v.1.15,2013-07-04 19:04:00,
2013-07-04 15:05:00,77.2,67.1,30.00,NNE,24,0.0,0.0,71,0.00,,,0.00,221,Wunderground v.1.15,2013-07-04 19:05:00,
2013-07-04 15:08:00,77.3,66.7,30.00,NE,51,0.0,0.0,70,0.00,,,0.00,248,Wunderground v.1.15,2013-07-04 19:08:00,
2013-07-04 15:10:00,77.2,66.7,30.00,NE,51,0.0,0.0,70,0.00,,,0.00,178,Wunderground v.1.15,2013-07-04 19:10:00,
2013-07-04 15:11:00,77.2,66.2,30.00,NE,51,0.0,0.0,69,0.00,,,0.00,165,Wunderground v.1.15,2013-07-04 19:11:00,
2013-07-04 15:13:00,77.1,66.6,30.00,NE,51,0.0,0.0,70,0.00,,,0.00,163,Wunderground v.1.15,2013-07-04 19:13:00,
2013-07-04 15:18:00,76.9,66.8,30.01,ENE,71,0.0,0.0,71,0.00,,,0.00,181,Wunderground v.1.15,2013-07-04 19:18:00,
2013-07-04 15:19:00,76.9,66.8,30.01,East,80,0.0,0.0,71,0.00,,,0.00,142,Wunderground v.1.15,2013-07-04 19:19:00,
2013-07-04 15:23:00,76.6,66.1,30.01,ENE,65,0.0,0.0,70,0.00,,,0.00,148,Wunderground v.1.15,2013-07-04 19:23:00,
2013-07-04 15:24:00,76.6,65.7,30.01,NE,49,0.0,0.0,69,0.00,,,0.00,151,Wunderground v.1.15,2013-07-04 19:24:00,
2013-07-04 15:25:00,76.4,65.5,30.01,NE,47,0.0,0.0,69,0.00,,,0.00,153,Wunderground v.1.15,2013-07-04 19:25:00,
2013-07-04 15:28:00,76.2,65.7,30.01,NE,47,0.0,0.0,70,0.00,,,0.00,142,Wunderground v.1.15,2013-07-04 19:28:00,
2013-07-04 15:30:00,76.1,66.0,30.01,NE,47,0.0,0.0,71,0.00,,,0.00,97,Wunderground v.1.15,2013-07-04 19:30:00,
2013-07-04 15:32:00,76.0,65.9,30.00,NE,47,0.0,0.0,71,0.00,,,0.00,93,Wunderground v.1.15,2013-07-04 19:32:00,
2013-07-04 15:33:00,76.0,65.9,30.00,NE,47,0.0,0.0,71,0.00,,,0.00,95,Wunderground v.1.15,2013-07-04 19:33:00,
2013-07-04 15:38:00,75.7,66.0,30.00,NE,47,0.0,0.0,72,0.00,,,0.00,132,Wunderground v.1.15,2013-07-04 19:38:00,
2013-07-04 15:39:00,75.7,66.0,30.00,NE,47,0.0,0.0,72,0.00,,,0.00,142,Wunderground v.1.15,2013-07-04 19:39:00,
2013-07-04 15:41:00,75.7,66.0,30.00,NE,47,0.0,0.0,72,0.00,,,0.00,169,Wunderground v.1.15,2013-07-04 19:41:00,
2013-07-04 15:43:00,75.6,66.3,30.00,NE,47,0.0,0.0,73,0.00,,,0.00,160,Wunderground v.1.15,2013-07-04 19:43:00,
2013-07-04 15:44:00,75.6,66.3,30.00,NE,47,0.0,0.0,73,0.00,,,0.00,156,Wunderground v.1.15,2013-07-04 19:44:00,
2013-07-04 15:45:00,75.6,66.3,30.00,NE,47,0.0,0.0,73,0.00,,,0.00,149,Wunderground v.1.15,2013-07-04 19:45:00,
2013-07-04 15:46:00,75.5,66.6,30.00,NE,47,0.0,0.0,74,0.00,,,0.00,148,Wunderground v.1.15,2013-07-04 19:46:00,
2013-07-04 15:49:00,75.5,66.6,30.00,NE,47,0.0,0.0,74,0.00,,,0.00,156,Wunderground v.1.15,2013-07-04 19:49:00,
2013-07-04 15:51:00,75.5,66.2,30.00,NE,47,0.0,0.0,73,0.00,,,0.00,148,Wunderground v.1.15,2013-07-04 19:51:00,
2013-07-04 15:53:00,75.5,66.2,30.00,NE,47,0.0,0.0,73,0.00,,,0.00,137,Wunderground v.1.15,2013-07-04 19:53:00,
2013-07-04 15:54:00,75.5,66.2,30.00,NE,47,0.0,0.0,73,0.00,,,0.00,137,Wunderground v.1.15,2013-07-04 19:54:00,
2013-07-04 15:56:00,75.4,66.5,30.00,NE,47,0.0,0.0,74,0.00,,,0.00,142,Wunderground v.1.15,2013-07-04 19:56:00,
2013-07-04 15:58:00,75.4,66.5,30.00,NE,47,0.0,0.0,74,0.00,,,0.00,148,Wunderground v.1.15,2013-07-04 19:58:00,
2013-07-04 16:01:00,75.3,66.4,30.00,NE,48,0.0,0.0,74,0.00,,,0.00,137,Wunderground v.1.15,2013-07-04 20:01:00,
2013-07-04 16:02:00,75.3,66.0,30.00,NE,48,0.0,0.0,73,0.00,,,0.00,137,Wunderground v.1.15,2013-07-04 20:02:00,
2013-07-04 16:04:00,75.2,66.3,30.00,NE,48,0.0,0.0,74,0.00,,,0.00,142,Wunderground v.1.15,2013-07-04 20:04:00,
2013-07-04 16:07:00,75.1,65.9,29.99,NE,48,0.0,0.0,73,0.00,,,0.00,206,Wunderground v.1.15,2013-07-04 20:07:00,
2013-07-04 16:08:00,75.1,65.9,29.99,NE,48,0.0,0.0,73,0.00,,,0.00,206,Wunderground v.1.15,2013-07-04 20:08:00,
2013-07-04 16:09:00,75.0,65.8,29.99,NE,39,0.0,0.0,73,0.00,,,0.00,178,Wunderground v.1.15,2013-07-04 20:09:00,
2013-07-04 16:12:00,75.0,66.1,29.99,NE,39,0.0,0.0,74,0.00,,,0.00,178,Wunderground v.1.15,2013-07-04 20:12:00,
2013-07-04 16:14:00,75.0,66.1,29.99,ENE,69,0.0,0.0,74,0.00,,,0.00,169,Wunderground v.1.15,2013-07-04 20:14:00,
2013-07-04 16:15:00,75.0,66.1,29.99,ENE,69,0.0,0.0,74,0.00,,,0.00,160,Wunderground v.1.15,2013-07-04 20:15:00,
2013-07-04 16:18:00,75.0,66.1,29.99,ENE,76,0.0,0.0,74,0.00,,,0.00,148,Wunderground v.1.15,2013-07-04 20:18:00,
2013-07-04 16:21:00,75.0,66.1,29.99,ENE,75,0.0,0.0,74,0.00,,,0.00,158,Wunderground v.1.15,2013-07-04 20:21:00,
2013-07-04 16:22:00,75.0,66.1,30.00,ENE,62,0.0,0.0,74,0.00,,,0.00,163,Wunderground v.1.15,2013-07-04 20:22:00,
2013-07-04 16:23:00,75.0,66.1,29.99,ENE,74,0.0,0.0,74,0.00,,,0.00,160,Wunderground v.1.15,2013-07-04 20:23:00,
2013-07-04 16:26:00,75.0,66.1,30.00,ENE,74,0.0,0.0,74,0.00,,,0.00,125,Wunderground v.1.15,2013-07-04 20:26:00,
2013-07-04 16:28:00,75.0,66.1,30.00,ENE,74,0.0,0.0,74,0.00,,,0.00,98,Wunderground v.1.15,2013-07-04 20:28:00,
2013-07-04 16:29:00,75.0,66.1,30.00,ENE,73,0.0,0.0,74,0.00,,,0.00,88,Wunderground v.1.15,2013-07-04 20:29:00,
2013-07-04 16:30:00,74.9,66.1,30.00,ENE,73,0.0,0.0,74,0.00,,,0.00,90,Wunderground v.1.15,2013-07-04 20:30:00,
2013-07-04 16:34:00,74.8,65.6,30.00,ENE,67,0.0,0.0,73,0.00,,,0.00,79,Wunderground v.1.15,2013-07-04 20:34:00,
2013-07-04 16:35:00,74.8,65.6,30.00,NNE,15,0.0,0.0,73,0.00,,,0.00,74,Wunderground v.1.15,2013-07-04 20:35:00,
2013-07-04 16:36:00,74.7,65.5,30.00,NNE,15,0.0,0.0,73,0.00,,,0.00,74,Wunderground v.1.15,2013-07-04 20:36:00,
2013-07-04 16:40:00,74.5,65.7,30.00,NNE,15,0.0,0.0,74,0.00,,,0.00,81,Wunderground v.1.15,2013-07-04 20:40:00,
2013-07-04 16:41:00,74.4,65.6,30.00,NNE,15,0.0,0.0,74,0.00,,,0.00,77,Wunderground v.1.15,2013-07-04 20:41:00,
2013-07-04 16:44:00,74.3,65.9,30.00,NNE,15,0.0,0.0,75,0.00,,,0.00,76,Wunderground v.1.15,2013-07-04 20:44:00,
2013-07-04 16:45:00,74.2,65.4,30.00,NNE,15,0.0,0.0,74,0.00,,,0.00,77,Wunderground v.1.15,2013-07-04 20:45:00,
2013-07-04 16:49:00,74.1,65.3,30.00,North,355,0.0,0.0,74,0.00,,,0.00,84,Wunderground v.1.15,2013-07-04 20:49:00,
2013-07-04 16:50:00,74.0,65.2,30.00,North,355,0.0,0.0,74,0.00,,,0.00,84,Wunderground v.1.15,2013-07-04 20:50:00,
2013-07-04 16:52:00,74.0,65.6,30.00,NNW,338,0.0,0.0,75,0.00,,,0.00,81,Wunderground v.1.15,2013-07-04 20:52:00,
2013-07-04 16:54:00,73.9,65.5,30.00,NNW,338,0.0,0.0,75,0.00,,,0.00,84,Wunderground v.1.15,2013-07-04 20:54:00,
2013-07-04 16:55:00,73.9,65.5,30.00,NNW,335,0.0,0.0,75,0.00,,,0.00,93,Wunderground v.1.15,2013-07-04 20:55:00,
2013-07-04 16:58:00,73.8,65.4,30.00,NNW,335,0.0,0.0,75,0.00,,,0.00,174,Wunderground v.1.15,2013-07-04 20:58:00,
2013-07-04 16:59:00,73.8,65.8,30.00,NNW,328,0.0,0.0,76,0.00,,,0.00,190,Wunderground v.1.15,2013-07-04 20:59:00,
2013-07-04 17:01:00,73.8,65.8,30.00,NNW,328,0.0,0.0,76,0.00,,,0.00,188,Wunderground v.1.15,2013-07-04 21:01:00,
2013-07-04 17:04:00,73.8,65.8,30.00,NNW,328,0.0,0.0,76,0.00,,,0.00,209,Wunderground v.1.15,2013-07-04 21:04:00,
2013-07-04 17:05:00,73.9,66.2,30.00,NNW,328,0.0,0.0,77,0.00,,,0.00,243,Wunderground v.1.15,2013-07-04 21:05:00,
2013-07-04 17:08:00,74.0,66.3,30.00,NNW,328,0.0,0.0,77,0.00,,,0.00,244,Wunderground v.1.15,2013-07-04 21:08:00,
2013-07-04 17:09:00,74.0,66.3,29.99,NNW,328,0.0,0.0,77,0.00,,,0.00,244,Wunderground v.1.15,2013-07-04 21:09:00,
2013-07-04 17:10:00,74.1,66.0,30.00,West,267,0.0,0.0,76,0.00,,,0.00,216,Wunderground v.1.15,2013-07-04 21:10:00,
2013-07-04 17:11:00,74.2,66.1,29.99,West,266,0.0,0.0,76,0.00,,,0.00,216,Wunderground v.1.15,2013-07-04 21:11:00,
2013-07-04 17:14:00,74.4,66.3,30.00,West,259,0.0,0.0,76,0.00,,,0.00,605,Wunderground v.1.15,2013-07-04 21:14:00,
2013-07-04 17:15:00,74.6,66.5,30.00,North,5,0.0,0.0,76,0.00,,,0.00,605,Wunderground v.1.15,2013-07-04 21:15:00,
2013-07-04 17:16:00,74.7,66.6,30.00,SSE,154,0.0,0.0,76,0.00,,,0.00,605,Wunderground v.1.15,2013-07-04 21:16:00,
2013-07-04 17:21:00,74.9,65.7,29.99,SSE,163,0.0,0.0,73,0.00,,,0.00,417,Wunderground v.1.15,2013-07-04 21:21:00,
2013-07-04 17:22:00,74.9,66.1,29.99,SSE,163,0.0,0.0,74,0.00,,,0.00,417,Wunderground v.1.15,2013-07-04 21:22:00,
2013-07-04 17:23:00,75.0,66.5,29.99,SSE,163,0.0,0.0,75,0.00,,,0.00,492,Wunderground v.1.15,2013-07-04 21:23:00,
2013-07-04 17:27:00,75.2,65.9,30.00,SSE,156,0.0,0.0,73,0.00,,,0.00,522,Wunderground v.1.15,2013-07-04 21:27:00,
2013-07-04 17:28:00,75.3,66.4,30.00,SSE,156,0.0,0.0,74,0.00,,,0.00,517,Wunderground v.1.15,2013-07-04 21:28:00,
2013-07-04 17:30:00,75.5,66.6,30.00,SSE,156,0.0,0.0,74,0.00,,,0.00,490,Wunderground v.1.15,2013-07-04 21:30:00,
2013-07-04 17:31:00,75.6,66.3,30.00,SSE,156,0.0,0.0,73,0.00,,,0.00,490,Wunderground v.1.15,2013-07-04 21:31:00,
2013-07-04 17:35:00,75.8,66.5,29.99,SSE,156,0.0,0.0,73,0.00,,,0.00,118,Wunderground v.1.15,2013-07-04 21:35:00,
2013-07-04 17:36:00,75.9,66.2,29.99,SSE,156,0.0,0.0,72,0.00,,,0.00,489,Wunderground v.1.15,2013-07-04 21:36:00,
2013-07-04 17:37:00,75.9,66.2,29.99,SSE,156,0.0,0.0,72,0.00,,,0.00,478,Wunderground v.1.15,2013-07-04 21:37:00,
2013-07-04 17:42:00,76.1,65.6,29.99,NNW,343,0.0,0.0,70,0.00,,,0.00,462,Wunderground v.1.15,2013-07-04 21:42:00,
2013-07-04 17:43:00,76.2,65.7,29.99,NNW,341,0.0,0.0,70,0.00,,,0.00,452,Wunderground v.1.15,2013-07-04 21:43:00,
2013-07-04 17:47:00,76.4,65.9,29.99,SSW,194,0.0,0.0,70,0.00,,,0.00,452,Wunderground v.1.15,2013-07-04 21:47:00,
2013-07-04 17:49:00,76.6,65.2,29.99,SSW,194,0.0,0.0,68,0.00,,,0.00,445,Wunderground v.1.15,2013-07-04 21:49:00,
2013-07-04 17:50:00,76.6,65.2,29.99,SSW,194,0.0,0.0,68,0.00,,,0.00,448,Wunderground v.1.15,2013-07-04 21:50:00,
2013-07-04 17:54:00,76.8,65.4,29.99,SSW,194,0.0,0.0,68,0.00,,,0.00,429,Wunderground v.1.15,2013-07-04 21:54:00,
2013-07-04 17:56:00,76.9,65.5,30.00,SSW,194,0.0,0.0,68,0.00,,,0.00,424,Wunderground v.1.15,2013-07-04 21:56:00,
2013-07-04 17:57:00,76.9,65.5,29.99,SSW,194,0.0,0.0,68,0.00,,,0.00,418,Wunderground v.1.15,2013-07-04 21:57:00,
2013-07-04 17:58:00,76.9,66.0,29.99,SSW,194,0.0,0.0,69,0.00,,,0.00,418,Wunderground v.1.15,2013-07-04 21:58:00,
2013-07-04 18:00:00,77.1,66.1,29.99,SSW,194,0.0,0.0,69,0.00,,,0.00,422,Wunderground v.1.15,2013-07-04 22:00:00,
2013-07-04 18:01:00,77.1,66.1,29.99,SSW,194,0.0,0.0,69,0.00,,,0.00,420,Wunderground v.1.15,2013-07-04 22:01:00,
2013-07-04 18:05:00,77.3,65.9,30.00,SSW,194,0.0,0.0,68,0.00,,,0.00,404,Wunderground v.1.15,2013-07-04 22:05:00,
2013-07-04 18:10:00,77.5,66.1,30.00,SSW,194,0.0,0.0,68,0.00,,,0.00,385,Wunderground v.1.15,2013-07-04 22:10:00,
2013-07-04 18:11:00,77.6,66.2,30.00,SSW,194,0.0,0.0,68,0.00,,,0.00,388,Wunderground v.1.15,2013-07-04 22:11:00,
2013-07-04 18:12:00,77.6,66.2,30.00,SSW,194,0.0,0.0,68,0.00,,,0.00,392,Wunderground v.1.15,2013-07-04 22:12:00,
2013-07-04 18:13:00,77.6,66.2,30.00,SSW,194,0.0,0.0,68,0.00,,,0.00,392,Wunderground v.1.15,2013-07-04 22:13:00,
2013-07-04 18:14:00,77.6,65.8,30.00,SSW,194,0.0,0.0,67,0.00,,,0.00,378,Wunderground v.1.15,2013-07-04 22:14:00,
2013-07-04 18:18:00,77.6,65.3,30.00,SSW,194,0.0,0.0,66,0.00,,,0.00,352,Wunderground v.1.15,2013-07-04 22:18:00,
2013-07-04 18:19:00,77.6,65.3,30.00,SSW,194,0.0,0.0,66,0.00,,,0.00,367,Wunderground v.1.15,2013-07-04 22:19:00,
2013-07-04 18:20:00,77.6,65.3,30.00,SSW,194,0.0,0.0,66,0.00,,,0.00,383,Wunderground v.1.15,2013-07-04 22:20:00,
2013-07-04 18:25:00,77.3,65.5,30.00,SSW,194,0.0,0.0,67,0.00,,,0.00,353,Wunderground v.1.15,2013-07-04 22:25:00,
2013-07-04 18:26:00,77.3,65.5,30.00,SSW,194,0.0,0.0,67,0.00,,,0.00,346,Wunderground v.1.15,2013-07-04 22:26:00,
2013-07-04 18:27:00,77.2,65.0,30.00,SSW,194,0.0,0.0,66,0.00,,,0.00,357,Wunderground v.1.15,2013-07-04 22:27:00,
2013-07-04 18:28:00,77.2,65.4,30.00,SSW,194,0.0,0.0,67,0.00,,,0.00,362,Wunderground v.1.15,2013-07-04 22:28:00,
2013-07-04 18:30:00,77.2,65.8,30.00,SSW,209,0.0,0.0,68,0.00,,,0.00,355,Wunderground v.1.15,2013-07-04 22:30:00,
2013-07-04 18:31:00,77.1,65.3,29.99,SSW,209,0.0,0.0,67,0.00,,,0.00,346,Wunderground v.1.15,2013-07-04 22:31:00,
2013-07-04 18:34:00,77.1,65.7,30.00,SSW,192,0.0,0.0,68,0.00,,,0.00,227,Wunderground v.1.15,2013-07-04 22:34:00,
2013-07-04 18:37:00,77.1,65.7,29.99,SSW,192,0.0,0.0,68,0.00,,,0.00,232,Wunderground v.1.15,2013-07-04 22:37:00,
2013-07-04 18:38:00,77.0,65.6,29.99,SSW,192,0.0,0.0,68,0.00,,,0.00,251,Wunderground v.1.15,2013-07-04 22:38:00,
2013-07-04 18:39:00,77.0,65.2,29.99,SSW,192,0.0,0.0,67,0.00,,,0.00,246,Wunderground v.1.15,2013-07-04 22:39:00,
2013-07-04 18:40:00,76.9,65.1,29.99,SSW,192,0.0,0.0,67,0.00,,,0.00,265,Wunderground v.1.15,2013-07-04 22:40:00,
2013-07-04 18:41:00,76.9,65.1,29.99,SSW,194,0.0,0.0,67,0.00,,,0.00,278,Wunderground v.1.15,2013-07-04 22:41:00,
2013-07-04 18:46:00,76.9,65.5,30.00,SSW,198,0.0,0.0,68,0.00,,,0.00,306,Wunderground v.1.15,2013-07-04 22:46:00,
2013-07-04 18:49:00,76.9,65.1,29.99,SSW,198,0.0,0.0,67,0.00,,,0.00,288,Wunderground v.1.15,2013-07-04 22:49:00,
2013-07-04 18:52:00,76.9,65.1,29.99,SSW,198,0.0,0.0,67,0.00,,,0.00,213,Wunderground v.1.15,2013-07-04 22:52:00,
2013-07-04 18:54:00,76.9,64.7,30.00,North,351,0.0,0.0,66,0.00,,,0.00,227,Wunderground v.1.15,2013-07-04 22:54:00,
2013-07-04 18:55:00,76.9,65.1,30.00,North,351,0.0,0.0,67,0.00,,,0.00,227,Wunderground v.1.15,2013-07-04 22:55:00,
2013-07-04 18:56:00,76.9,65.1,30.00,North,351,0.0,0.0,67,0.00,,,0.00,171,Wunderground v.1.15,2013-07-04 22:56:00,
2013-07-04 18:57:00,76.8,65.0,30.00,West,273,0.0,0.0,67,0.00,,,0.00,172,Wunderground v.1.15,2013-07-04 22:57:00,
2013-07-04 19:00:00,76.7,64.9,30.00,West,275,0.0,0.0,67,0.00,,,0.00,130,Wunderground v.1.15,2013-07-04 23:00:00,
2013-07-04 19:04:00,76.4,64.6,30.00,WSW,248,0.0,0.0,67,0.00,,,0.00,97,Wunderground v.1.15,2013-07-04 23:04:00,
2013-07-04 19:05:00,76.3,64.5,30.00,WSW,248,0.0,0.0,67,0.00,,,0.00,91,Wunderground v.1.15,2013-07-04 23:05:00,
2013-07-04 19:06:00,76.2,64.4,30.00,WSW,250,0.0,0.0,67,0.00,,,0.00,127,Wunderground v.1.15,2013-07-04 23:06:00,
2013-07-04 19:09:00,76.0,64.2,30.00,WSW,246,0.0,0.0,67,0.00,,,0.00,132,Wunderground v.1.15,2013-07-04 23:09:00,
2013-07-04 19:11:00,75.9,64.2,29.99,SW,222,0.0,0.0,67,0.00,,,0.00,116,Wunderground v.1.15,2013-07-04 23:11:00,
2013-07-04 19:12:00,75.8,64.1,29.99,SW,222,0.0,0.0,67,0.00,,,0.00,90,Wunderground v.1.15,2013-07-04 23:12:00,
2013-07-04 19:15:00,75.6,64.3,30.00,SW,222,0.0,0.0,68,0.00,,,0.00,84,Wunderground v.1.15,2013-07-04 23:15:00,
2013-07-04 19:18:00,75.4,64.1,29.99,SW,222,0.0,0.0,68,0.00,,,0.00,77,Wunderground v.1.15,2013-07-04 23:18:00,
2013-07-04 19:19:00,75.4,64.1,29.99,SW,214,0.0,0.0,68,0.00,,,0.00,102,Wunderground v.1.15,2013-07-04 23:19:00,
2013-07-04 19:20:00,75.3,64.0,30.00,SW,214,0.0,0.0,68,0.00,,,0.00,93,Wunderground v.1.15,2013-07-04 23:20:00,
2013-07-04 19:21:00,75.3,64.4,30.00,SW,214,0.0,0.0,69,0.00,,,0.00,105,Wunderground v.1.15,2013-07-04 23:21:00,
2013-07-04 19:23:00,75.2,64.3,30.00,SW,214,0.0,0.0,69,0.00,,,0.00,107,Wunderground v.1.15,2013-07-04 23:23:00,
2013-07-04 19:25:00,75.2,64.3,30.00,SW,214,0.0,0.0,69,0.00,,,0.00,91,Wunderground v.1.15,2013-07-04 23:25:00,
2013-07-04 19:26:00,75.1,64.2,30.00,SW,214,0.0,0.0,69,0.00,,,0.00,90,Wunderground v.1.15,2013-07-04 23:26:00,
2013-07-04 19:27:00,75.1,64.6,30.00,SW,214,0.0,0.0,70,0.00,,,0.00,120,Wunderground v.1.15,2013-07-04 23:27:00,
2013-07-04 19:28:00,75.1,64.6,30.00,SW,214,0.0,0.0,70,0.00,,,0.00,123,Wunderground v.1.15,2013-07-04 23:28:00,
2013-07-04 19:30:00,75.0,64.5,29.99,SW,214,0.0,0.0,70,0.00,,,0.00,74,Wunderground v.1.15,2013-07-04 23:30:00,
2013-07-04 19:33:00,74.9,64.5,29.99,SW,214,0.0,0.0,70,0.00,,,0.00,130,Wunderground v.1.15,2013-07-04 23:33:00,
2013-07-04 19:35:00,74.9,64.9,29.99,SW,214,0.0,0.0,71,0.00,,,0.00,141,Wunderground v.1.15,2013-07-04 23:35:00,
2013-07-04 19:36:00,74.9,64.9,29.99,SW,214,0.0,0.0,71,0.00,,,0.00,141,Wunderground v.1.15,2013-07-04 23:36:00,
2013-07-04 19:39:00,74.9,65.3,29.99,SW,214,0.0,0.0,72,0.00,,,0.00,84,Wunderground v.1.15,2013-07-04 23:39:00,
2013-07-04 19:41:00,74.9,64.9,29.99,SW,214,0.0,0.0,71,0.00,,,0.00,77,Wunderground v.1.15,2013-07-04 23:41:00,
2013-07-04 19:42:00,74.9,64.9,29.99,SW,214,0.0,0.0,71,0.00,,,0.00,77,Wunderground v.1.15,2013-07-04 23:42:00,
2013-07-04 19:44:00,74.9,64.9,29.99,SW,214,0.0,0.0,71,0.00,,,0.00,137,Wunderground v.1.15,2013-07-04 23:44:00,
2013-07-04 19:48:00,74.9,64.9,29.99,SW,214,0.0,0.0,71,0.00,,,0.00,84,Wunderground v.1.15,2013-07-04 23:48:00,
2013-07-04 19:49:00,74.8,64.8,29.99,SW,214,0.0,0.0,71,0.00,,,0.00,49,Wunderground v.1.15,2013-07-04 23:49:00,
2013-07-04 19:50:00,74.8,64.8,29.99,SW,214,0.0,0.0,71,0.00,,,0.00,113,Wunderground v.1.15,2013-07-04 23:50:00,
2013-07-04 19:51:00,74.8,65.2,29.99,SW,214,0.0,0.0,72,0.00,,,0.00,113,Wunderground v.1.15,2013-07-04 23:51:00,
2013-07-04 19:55:00,74.7,65.1,30.00,SW,214,0.0,0.0,72,0.00,,,0.00,74,Wunderground v.1.15,2013-07-04 23:55:00,
2013-07-04 19:56:00,74.7,65.1,30.00,SW,214,0.0,0.0,72,0.00,,,0.00,70,Wunderground v.1.15,2013-07-04 23:56:00,
2013-07-04 19:57:00,74.6,65.0,30.00,SW,214,0.0,0.0,72,0.00,,,0.00,67,Wunderground v.1.15,2013-07-04 23:57:00,
2013-07-04 20:02:00,74.6,65.4,29.99,SW,214,0.0,0.0,73,0.00,,,0.00,111,Wunderground v.1.15,2013-07-05 00:02:00,
2013-07-04 20:03:00,74.5,65.3,30.00,SW,214,0.0,0.0,73,0.00,,,0.00,109,Wunderground v.1.15,2013-07-05 00:03:00,
2013-07-04 20:04:00,74.6,65.4,29.99,SW,214,0.0,0.0,73,0.00,,,0.00,102,Wunderground v.1.15,2013-07-05 00:04:00,
2013-07-04 20:07:00,74.6,65.4,30.00,SW,214,0.0,0.0,73,0.00,,,0.00,88,Wunderground v.1.15,2013-07-05 00:07:00,
2013-07-04 20:08:00,74.5,65.3,29.99,SW,214,0.0,0.0,73,0.00,,,0.00,81,Wunderground v.1.15,2013-07-05 00:08:00,
2013-07-04 20:10:00,74.6,65.4,29.99,SW,214,0.0,0.0,73,0.00,,,0.00,65,Wunderground v.1.15,2013-07-05 00:10:00,
2013-07-04 20:11:00,74.6,65.4,29.99,SW,214,0.0,0.0,73,0.00,,,0.00,70,Wunderground v.1.15,2013-07-05 00:11:00,
2013-07-04 20:13:00,74.6,65.4,29.99,SW,214,0.0,0.0,73,0.00,,,0.00,53,Wunderground v.1.15,2013-07-05 00:13:00,
2013-07-04 20:14:00,74.5,65.3,30.00,SW,214,0.0,0.0,73,0.00,,,0.00,63,Wunderground v.1.15,2013-07-05 00:14:00,
2013-07-04 20:16:00,74.5,64.9,29.99,SW,214,0.0,0.0,72,0.00,,,0.00,54,Wunderground v.1.15,2013-07-05 00:16:00,
2013-07-04 20:18:00,74.5,64.9,29.99,SW,214,0.0,0.0,72,0.00,,,0.00,51,Wunderground v.1.15,2013-07-05 00:18:00,
2013-07-04 20:20:00,74.4,64.8,29.99,SW,214,0.0,0.0,72,0.00,,,0.00,56,Wunderground v.1.15,2013-07-05 00:20:00,
2013-07-04 20:22:00,74.4,64.8,29.99,SW,214,0.0,0.0,72,0.00,,,0.00,69,Wunderground v.1.15,2013-07-05 00:22:00,
2013-07-04 20:24:00,74.3,65.1,29.99,SW,214,0.0,0.0,73,0.00,,,0.00,62,Wunderground v.1.15,2013-07-05 00:24:00,
2013-07-04 20:25:00,74.2,64.6,29.99,SW,214,0.0,0.0,72,0.00,,,0.00,58,Wunderground v.1.15,2013-07-05 00:25:00,
2013-07-04 20:29:00,74.1,64.1,29.99,SW,214,0.0,0.0,71,0.00,,,0.00,40,Wunderground v.1.15,2013-07-05 00:29:00,
2013-07-04 20:31:00,74.1,64.5,29.99,SW,214,0.0,0.0,72,0.00,,,0.00,39,Wunderground v.1.15,2013-07-05 00:31:00,
2013-07-04 20:34:00,74.0,64.4,29.99,SW,214,0.0,0.0,72,0.00,,,0.00,35,Wunderground v.1.15,2013-07-05 00:34:00,
2013-07-04 20:36:00,73.9,64.3,29.99,SW,214,0.0,0.0,72,0.00,,,0.00,33,Wunderground v.1.15,2013-07-05 00:36:00,
2013-07-04 20:39:00,73.8,64.2,29.99,SW,214,0.0,0.0,72,0.00,,,0.00,33,Wunderground v.1.15,2013-07-05 00:39:00,
2013-07-04 20:40:00,73.8,64.6,29.99,SW,214,0.0,0.0,73,0.00,,,0.00,33,Wunderground v.1.15,2013-07-05 00:40:00,
2013-07-04 20:41:00,73.8,64.2,29.99,South,189,0.0,1.0,72,0.00,,,0.00,33,Wunderground v.1.15,2013-07-05 00:41:00,
2013-07-04 20:42:00,73.7,64.1,29.99,South,190,0.0,1.0,72,0.00,,,0.00,32,Wunderground v.1.15,2013-07-05 00:42:00,
2013-07-04 20:43:00,73.7,63.7,29.99,South,184,0.0,1.0,71,0.00,,,0.00,30,Wunderground v.1.15,2013-07-05 00:43:00,
2013-07-04 20:46:00,73.5,63.5,29.99,SSW,194,1.0,3.0,71,0.00,,,0.00,28,Wunderground v.1.15,2013-07-05 00:46:00,
2013-07-04 20:50:00,73.4,63.8,29.99,South,180,1.0,4.0,72,0.00,,,0.00,28,Wunderground v.1.15,2013-07-05 00:50:00,
2013-07-04 20:52:00,73.3,63.7,29.99,South,188,1.0,1.0,72,0.00,,,0.00,26,Wunderground v.1.15,2013-07-05 00:52:00,
2013-07-04 20:53:00,73.3,63.7,29.99,South,188,1.0,1.0,72,0.00,,,0.00,25,Wunderground v.1.15,2013-07-05 00:53:00,
2013-07-04 20:56:00,73.2,63.6,29.99,South,188,1.0,1.0,72,0.00,,,0.00,19,Wunderground v.1.15,2013-07-05 00:56:00,
2013-07-04 20:58:00,73.1,63.9,29.99,SSW,195,1.0,1.0,73,0.00,,,0.00,14,Wunderground v.1.15,2013-07-05 00:58:00,
2013-07-04 21:00:00,73.1,63.9,29.99,South,182,0.0,1.0,73,0.00,,,0.00,12,Wunderground v.1.15,2013-07-05 01:00:00,
2013-07-04 21:01:00,73.0,63.4,29.99,South,190,0.0,2.0,72,0.00,,,0.00,12,Wunderground v.1.15,2013-07-05 01:01:00,
2013-07-04 21:02:00,73.0,63.4,29.99,South,189,0.0,2.0,72,0.00,,,0.00,12,Wunderground v.1.15,2013-07-05 01:02:00,
2013-07-04 21:04:00,72.8,63.2,29.99,South,186,1.0,2.0,72,0.00,,,0.00,11,Wunderground v.1.15,2013-07-05 01:04:00,
2013-07-04 21:05:00,72.8,63.2,29.99,South,186,1.0,2.0,72,0.00,,,0.00,11,Wunderground v.1.15,2013-07-05 01:05:00,
2013-07-04 21:08:00,72.6,63.1,29.99,SSW,192,1.0,2.0,72,0.00,,,0.00,9,Wunderground v.1.15,2013-07-05 01:08:00,
2013-07-04 21:09:00,72.6,63.4,29.99,SSW,192,1.0,2.0,73,0.00,,,0.00,9,Wunderground v.1.15,2013-07-05 01:09:00,
2013-07-04 21:10:00,72.5,63.4,29.99,South,186,1.0,2.0,73,0.00,,,0.00,9,Wunderground v.1.15,2013-07-05 01:10:00,
2013-07-04 21:14:00,72.3,63.2,29.99,South,188,1.0,2.0,73,0.00,,,0.00,7,Wunderground v.1.15,2013-07-05 01:14:00,
2013-07-04 21:16:00,72.2,63.1,29.99,South,188,1.0,2.0,73,0.00,,,0.00,7,Wunderground v.1.15,2013-07-05 01:16:00,
2013-07-04 21:17:00,72.2,63.4,29.99,South,188,1.0,2.0,74,0.00,,,0.00,5,Wunderground v.1.15,2013-07-05 01:17:00,
2013-07-04 21:21:00,72.0,63.3,29.99,SSW,192,1.0,1.0,74,0.00,,,0.00,5,Wunderground v.1.15,2013-07-05 01:21:00,
2013-07-04 21:22:00,71.9,63.5,29.99,SSW,192,1.0,1.0,75,0.00,,,0.00,5,Wunderground v.1.15,2013-07-05 01:22:00,
2013-07-04 21:23:00,71.9,63.5,29.99,SSW,192,0.0,1.0,75,0.00,,,0.00,5,Wunderground v.1.15,2013-07-05 01:23:00,
2013-07-04 21:25:00,71.8,63.4,29.98,SSW,195,0.0,1.0,75,0.00,,,0.00,0,Wunderground v.1.15,2013-07-05 01:25:00,
2013-07-04 21:28:00,71.6,63.3,29.99,SSW,195,0.0,1.0,75,0.00,,,0.00,0,Wunderground v.1.15,2013-07-05 01:28:00,
2013-07-04 21:29:00,71.6,63.3,29.99,SSW,195,0.0,1.0,75,0.00,,,0.00,0,Wunderground v.1.15,2013-07-05 01:29:00,
2013-07-04 21:31:00,71.5,63.2,29.99,SSW,195,0.0,0.0,75,0.00,,,0.00,0,Wunderground v.1.15,2013-07-05 01:31:00,
2013-07-04 21:33:00,71.4,63.4,29.99,SSW,195,0.0,0.0,76,0.00,,,0.00,0,Wunderground v.1.15,2013-07-05 01:33:00,
2013-07-04 21:35:00,71.3,63.3,29.99,SSW,195,0.0,0.0,76,0.00,,,0.00,0,Wunderground v.1.15,2013-07-05 01:35:00,
2013-07-04 21:38:00,71.1,63.5,29.99,SSW,195,0.0,0.0,77,0.00,,,0.00,0,Wunderground v.1.15,2013-07-05 01:38:00,
2013-07-04 21:39:00,71.0,63.4,29.99,SSW,195,0.0,0.0,77,0.00,,,0.00,0,Wunderground v.1.15,2013-07-05 01:39:00,
2013-07-04 21:40:00,71.0,63.4,29.99,SSW,195,0.0,0.0,77,0.00,,,0.00,0,Wunderground v.1.15,2013-07-05 01:40:00,
2013-07-04 21:42:00,70.8,62.9,29.99,SSW,195,0.0,0.0,76,0.00,,,0.00,0,Wunderground v.1.15,2013-07-05 01:42:00,
2013-07-04 21:44:00,70.7,62.8,29.99,SSW,195,0.0,0.0,76,0.00,,,0.00,0,Wunderground v.1.15,2013-07-05 01:44:00,
2013-07-04 21:46:00,70.6,63.0,29.99,SSW,195,0.0,0.0,77,0.00,,,0.00,0,Wunderground v.1.15,2013-07-05 01:46:00,
2013-07-04 21:47:00,70.5,62.9,29.99,SSW,195,0.0,0.0,77,0.00,,,0.00,0,Wunderground v.1.15,2013-07-05 01:47:00,
2013-07-04 21:48:00,70.5,62.9,30.00,SSW,195,0.0,0.0,77,0.00,,,0.00,0,Wunderground v.1.15,2013-07-05 01:48:00,
2013-07-04 21:50:00,70.4,62.8,30.00,SSW,195,0.0,0.0,77,0.00,,,0.00,0,Wunderground v.1.15,2013-07-05 01:50:00,
2013-07-04 21:52:00,70.3,62.7,30.00,SSW,195,0.0,0.0,77,0.00,,,0.00,0,Wunderground v.1.15,2013-07-05 01:52:00,
2013-07-04 21:55:00,70.1,62.9,30.00,SSW,195,0.0,0.0,78,0.00,,,0.00,0,Wunderground v.1.15,2013-07-05 01:55:00,
2013-07-04 21:56:00,70.1,62.9,30.00,SSW,195,0.0,0.0,78,0.00,,,0.00,0,Wunderground v.1.15,2013-07-05 01:56:00,
2013-07-04 21:59:00,69.9,62.7,30.01,SSW,195,0.0,0.0,78,0.00,,,0.00,0,Wunderground v.1.15,2013-07-05 01:59:00,
2013-07-04 22:00:00,69.9,62.7,30.00,SSW,195,0.0,0.0,78,0.00,,,0.00,0,Wunderground v.1.15,2013-07-05 02:00:00,
2013-07-04 22:01:00,69.8,62.6,30.00,SSW,195,0.0,0.0,78,0.00,,,0.00,0,Wunderground v.1.15,2013-07-05 02:01:00,
2013-07-04 22:04:00,69.7,62.9,30.01,SSW,195,0.0,0.0,79,0.00,,,0.00,0,Wunderground v.1.15,2013-07-05 02:04:00,
2013-07-04 22:05:00,69.7,62.9,30.01,SSW,195,0.0,0.0,79,0.00,,,0.00,0,Wunderground v.1.15,2013-07-05 02:05:00,
2013-07-04 22:06:00,69.6,62.8,30.01,SSW,195,0.0,0.0,79,0.00,,,0.00,0,Wunderground v.1.15,2013-07-05 02:06:00,
2013-07-04 22:09:00,69.4,62.6,30.01,SSW,195,0.0,0.0,79,0.00,,,0.00,0,Wunderground v.1.15,2013-07-05 02:09:00,
2013-07-04 22:10:00,69.4,62.6,30.01,SSW,195,0.0,0.0,79,0.00,,,0.00,0,Wunderground v.1.15,2013-07-05 02:10:00,
2013-07-04 22:11:00,69.3,62.1,30.01,SSW,195,0.0,0.0,78,0.00,,,0.00,0,Wunderground v.1.15,2013-07-05 02:11:00,
2013-07-04 22:12:00,69.3,62.1,30.01,SSW,195,0.0,0.0,78,0.00,,,0.00,0,Wunderground v.1.15,2013-07-05 02:12:00,
2013-07-04 22:13:00,69.2,62.0,30.01,SSW,195,0.0,0.0,78,0.00,,,0.00,0,Wunderground v.1.15,2013-07-05 02:13:00,
2013-07-04 22:16:00,69.1,61.9,30.01,SSW,195,0.0,0.0,78,0.00,,,0.00,0,Wunderground v.1.15,2013-07-05 02:16:00,
2013-07-04 22:17:00,69.1,61.9,30.01,SSW,195,0.0,0.0,78,0.00,,,0.00,0,Wunderground v.1.15,2013-07-05 02:17:00,
2013-07-04 22:19:00,69.0,61.9,30.01,SSW,195,0.0,0.0,78,0.00,,,0.00,0,Wunderground v.1.15,2013-07-05 02:19:00,
2013-07-04 22:20:00,68.9,61.8,30.01,SSW,195,0.0,0.0,78,0.00,,,0.00,0,Wunderground v.1.15,2013-07-05 02:20:00,
2013-07-04 22:23:00,68.8,61.7,30.01,SSW,195,0.0,0.0,78,0.00,,,0.00,0,Wunderground v.1.15,2013-07-05 02:23:00,
2013-07-04 22:25:00,68.8,61.7,30.01,SSW,195,0.0,0.0,78,0.00,,,0.00,0,Wunderground v.1.15,2013-07-05 02:25:00,
2013-07-04 22:26:00,68.7,61.6,30.01,SSW,195,0.0,0.0,78,0.00,,,0.00,0,Wunderground v.1.15,2013-07-05 02:26:00,
2013-07-04 22:31:00,68.6,61.5,30.01,SSW,195,0.0,0.0,78,0.00,,,0.00,0,Wunderground v.1.15,2013-07-05 02:31:00,
2013-07-04 22:32:00,68.5,61.4,30.01,SSW,195,0.0,0.0,78,0.00,,,0.00,0,Wunderground v.1.15,2013-07-05 02:32:00,
2013-07-04 22:33:00,68.5,61.4,30.01,SSW,195,0.0,0.0,78,0.00,,,0.00,0,Wunderground v.1.15,2013-07-05 02:33:00,
2013-07-04 22:36:00,68.4,61.3,30.01,SSW,195,0.0,0.0,78,0.00,,,0.00,0,Wunderground v.1.15,2013-07-05 02:36:00,
2013-07-04 22:38:00,68.4,61.6,30.01,SSW,195,0.0,0.0,79,0.00,,,0.00,0,Wunderground v.1.15,2013-07-05 02:38:00,
2013-07-04 22:39:00,68.3,61.5,30.01,SSW,195,0.0,0.0,79,0.00,,,0.00,0,Wunderground v.1.15,2013-07-05 02:39:00,
2013-07-04 22:40:00,68.3,61.5,30.01,SSW,195,0.0,0.0,79,0.00,,,0.00,0,Wunderground v.1.15,2013-07-05 02:40:00,
2013-07-04 22:44:00,68.2,61.4,30.01,SSW,195,0.0,0.0,79,0.00,,,0.00,0,Wunderground v.1.15,2013-07-05 02:44:00,
2013-07-04 22:45:00,68.1,61.3,30.01,SSW,195,0.0,0.0,79,0.00,,,0.00,0,Wunderground v.1.15,2013-07-05 02:45:00,
2013-07-04 22:48:00,68.0,61.2,30.02,SSW,195,0.0,0.0,79,0.00,,,0.00,0,Wunderground v.1.15,2013-07-05 02:48:00,
2013-07-04 22:51:00,67.9,61.5,30.02,SSW,195,0.0,0.0,80,0.00,,,0.00,0,Wunderground v.1.15,2013-07-05 02:51:00,
2013-07-04 22:52:00,67.9,61.5,30.02,SSW,195,0.0,0.0,80,0.00,,,0.00,0,Wunderground v.1.15,2013-07-05 02:52:00,
2013-07-04 22:54:00,67.8,61.4,30.02,SSW,195,0.0,0.0,80,0.00,,,0.00,0,Wunderground v.1.15,2013-07-05 02:54:00,
2013-07-04 22:55:00,67.8,61.4,30.02,SSW,195,0.0,0.0,80,0.00,,,0.00,0,Wunderground v.1.15,2013-07-05 02:55:00,
2013-07-04 22:57:00,67.7,61.3,30.02,SSW,195,0.0,0.0,80,0.00,,,0.00,0,Wunderground v.1.15,2013-07-05 02:57:00,
2013-07-04 22:58:00,67.7,61.0,30.02,SSW,195,0.0,0.0,79,0.00,,,0.00,0,Wunderground v.1.15,2013-07-05 02:58:00,
2013-07-04 22:59:00,67.6,60.9,30.02,SSW,195,0.0,0.0,79,0.00,,,0.00,0,Wunderground v.1.15,2013-07-05 02:59:00,
2013-07-04 23:00:00,67.6,60.9,30.02,SSW,195,0.0,0.0,79,0.00,,,0.00,0,Wunderground v.1.15,2013-07-05 03:00:00,
2013-07-04 23:03:00,67.5,60.8,30.01,South,188,0.0,0.0,79,0.00,,,0.00,0,Wunderground v.1.15,2013-07-05 03:03:00,
2013-07-04 23:04:00,67.6,60.9,30.02,South,188,0.0,0.0,79,0.00,,,0.00,0,Wunderground v.1.15,2013-07-05 03:04:00,
2013-07-04 23:06:00,67.5,60.8,30.02,South,188,0.0,0.0,79,0.00,,,0.00,0,Wunderground v.1.15,2013-07-05 03:06:00,
2013-07-04 23:07:00,67.5,60.8,30.02,South,188,0.0,0.0,79,0.00,,,0.00,0,Wunderground v.1.15,2013-07-05 03:07:00,
2013-07-04 23:09:00,67.6,61.2,30.02,South,188,0.0,0.0,80,0.00,,,0.00,0,Wunderground v.1.15,2013-07-05 03:09:00,
2013-07-04 23:10:00,67.6,61.2,30.02,South,188,0.0,0.0,80,0.00,,,0.00,0,Wunderground v.1.15,2013-07-05 03:10:00,
2013-07-04 23:14:00,67.6,61.2,30.02,South,188,0.0,0.0,80,0.00,,,0.00,0,Wunderground v.1.15,2013-07-05 03:14:00,
2013-07-04 23:15:00,67.6,61.2,30.02,South,188,0.0,0.0,80,0.00,,,0.00,0,Wunderground v.1.15,2013-07-05 03:15:00,
2013-07-04 23:16:00,67.5,61.1,30.02,South,188,0.0,0.0,80,0.00,,,0.00,0,Wunderground v.1.15,2013-07-05 03:16:00,
2013-07-04 23:18:00,67.5,61.1,30.02,South,188,0.0,0.0,80,0.00,,,0.00,0,Wunderground v.1.15,2013-07-05 03:18:00,
2013-07-04 23:20:00,67.4,61.0,30.01,South,188,0.0,0.0,80,0.00,,,0.00,0,Wunderground v.1.15,2013-07-05 03:20:00,
2013-07-04 23:22:00,67.4,61.0,30.01,South,188,0.0,0.0,80,0.00,,,0.00,0,Wunderground v.1.15,2013-07-05 03:22:00,
2013-07-04 23:24:00,67.3,60.6,30.01,South,188,0.0,0.0,79,0.00,,,0.00,0,Wunderground v.1.15,2013-07-05 03:24:00,
2013-07-04 23:26:00,67.2,60.8,30.01,South,188,0.0,0.0,80,0.00,,,0.00,0,Wunderground v.1.15,2013-07-05 03:26:00,
2013-07-04 23:27:00,67.2,60.8,30.01,South,188,0.0,0.0,80,0.00,,,0.00,0,Wunderground v.1.15,2013-07-05 03:27:00,
2013-07-04 23:29:00,67.1,60.7,30.01,South,188,0.0,0.0,80,0.00,,,0.00,0,Wunderground v.1.15,2013-07-05 03:29:00,
2013-07-04 23:30:00,67.0,60.6,30.01,South,188,0.0,0.0,80,0.00,,,0.00,0,Wunderground v.1.15,2013-07-05 03:30:00,
2013-07-04 23:32:00,67.0,60.6,30.01,South,188,0.0,0.0,80,0.00,,,0.00,0,Wunderground v.1.15,2013-07-05 03:32:00,
2013-07-04 23:35:00,66.9,60.5,30.01,South,188,0.0,0.0,80,0.00,,,0.00,0,Wunderground v.1.15,2013-07-05 03:35:00,
2013-07-04 23:38:00,66.8,60.4,30.01,South,188,0.0,0.0,80,0.00,,,0.00,0,Wunderground v.1.15,2013-07-05 03:38:00,
2013-07-04 23:40:00,66.7,60.7,30.01,South,188,0.0,0.0,81,0.00,,,0.00,0,Wunderground v.1.15,2013-07-05 03:40:00,
2013-07-04 23:42:00,66.7,60.7,30.01,South,188,0.0,0.0,81,0.00,,,0.00,0,Wunderground v.1.15,2013-07-05 03:42:00,
2013-07-04 23:44:00,66.7,60.7,30.01,South,188,0.0,0.0,81,0.00,,,0.00,0,Wunderground v.1.15,2013-07-05 03:44:00,
2013-07-04 23:45:00,66.6,60.6,30.01,South,188,0.0,0.0,81,0.00,,,0.00,0,Wunderground v.1.15,2013-07-05 03:45:00,
2013-07-04 23:46:00,66.6,60.6,30.01,South,188,0.0,0.0,81,0.00,,,0.00,0,Wunderground v.1.15,2013-07-05 03:46:00,
2013-07-04 23:51:00,66.5,60.5,30.01,South,188,0.0,0.0,81,0.00,,,0.00,0,Wunderground v.1.15,2013-07-05 03:51:00,
2013-07-04 23:52:00,66.5,60.5,30.02,South,188,0.0,0.0,81,0.00,,,0.00,0,Wunderground v.1.15,2013-07-05 03:52:00,
2013-07-04 23:53:00,66.5,60.5,30.01,South,188,0.0,0.0,81,0.00,,,0.00,0,Wunderground v.1.15,2013-07-05 03:53:00,
2013-07-04 23:54:00,66.5,60.5,30.01,South,188,0.0,0.0,81,0.00,,,0.00,0,Wunderground v.1.15,2013-07-05 03:54:00,
2013-07-04 23:56:00,66.5,60.5,30.02,South,188,0.0,0.0,81,0.00,,,0.00,0,Wunderground v.1.15,2013-07-05 03:56:00,
2013-07-04 23:57:00,66.4,60.4,30.01,South,188,0.0,0.0,81,0.00,,,0.00,0,Wunderground v.1.15,2013-07-05 03:57:00,
2013-07-04 23:58:00,66.4,60.4,30.01,South,188,0.0,0.0,81,0.00,,,0.00,0,Wunderground v.1.15,2013-07-05 03:58:00,